Time,TemperatureF,DewpointF,PressureIn,WindDirection,WindDirectionDegrees,WindSpeedMPH,WindSpeedGustMPH,Humidity,HourlyPrecipIn,Conditions,Clouds,dailyrainin,SoftwareType,DateUTC
2013-02-02 00:01:00,51.3,44.3,30.31,North,8,1.0,2.0,77,0.00,,,0.00,Wunderground v.1.15,2013-02-02 05:01:00,
2013-02-02 00:02:00,51.3,44.0,30.31,North,9,2.0,2.0,76,0.00,,,0.00,Wunderground v.1.15,2013-02-02 05:02:00,
2013-02-02 00:04:00,51.2,44.2,30.31,North,5,2.0,2.0,77,0.00,,,0.00,Wunderground v.1.15,2013-02-02 05:04:00,
2013-02-02 00:07:00,51.0,44.0,30.31,North,4,2.0,2.0,77,0.00,,,0.00,Wunderground v.1.15,2013-02-02 05:07:00,
2013-02-02 00:08:00,51.0,44.0,30.31,North,3,1.0,2.0,77,0.00,,,0.00,Wunderground v.1.15,2013-02-02 05:08:00,
2013-02-02 00:11:00,50.8,43.8,30.31,North,4,1.0,2.0,77,0.00,,,0.00,Wunderground v.1.15,2013-02-02 05:11:00,
2013-02-02 00:12:00,50.7,43.8,30.31,North,4,1.0,2.0,77,0.00,,,0.00,Wunderground v.1.15,2013-02-02 05:12:00,
2013-02-02 00:13:00,50.7,43.8,30.31,North,4,1.0,2.0,77,0.00,,,0.00,Wunderground v.1.15,2013-02-02 05:13:00,
2013-02-02 00:16:00,50.7,44.1,30.30,North,4,2.0,2.0,78,0.00,,,0.00,Wunderground v.1.15,2013-02-02 05:16:00,
2013-02-02 00:17:00,50.7,44.1,30.30,North,3,1.0,2.0,78,0.00,,,0.00,Wunderground v.1.15,2013-02-02 05:17:00,
2013-02-02 00:20:00,50.5,43.9,30.30,North,3,1.0,1.0,78,0.00,,,0.00,Wunderground v.1.15,2013-02-02 05:20:00,
2013-02-02 00:23:00,50.3,43.7,30.30,NNE,12,2.0,2.0,78,0.00,,,0.00,Wunderground v.1.15,2013-02-02 05:23:00,
2013-02-02 00:26:00,50.0,43.4,30.30,NNE,12,2.0,2.0,78,0.00,,,0.00,Wunderground v.1.15,2013-02-02 05:26:00,
2013-02-02 00:27:00,49.9,43.3,30.30,NNE,13,2.0,2.0,78,0.00,,,0.00,Wunderground v.1.15,2013-02-02 05:27:00,
2013-02-02 00:29:00,49.7,43.5,30.30,NNE,12,1.0,2.0,79,0.00,,,0.00,Wunderground v.1.15,2013-02-02 05:29:00,
2013-02-02 00:31:00,49.6,43.4,30.30,NNE,12,1.0,2.0,79,0.00,,,0.00,Wunderground v.1.15,2013-02-02 05:31:00,
2013-02-02 00:35:00,49.5,43.6,30.30,NNE,23,2.0,4.0,80,0.00,,,0.00,Wunderground v.1.15,2013-02-02 05:35:00,
2013-02-02 00:37:00,49.4,43.5,30.30,NNE,23,1.0,4.0,80,0.00,,,0.00,Wunderground v.1.15,2013-02-02 05:37:00,
2013-02-02 00:38:00,49.3,43.4,30.30,NNE,23,1.0,4.0,80,0.00,,,0.00,Wunderground v.1.15,2013-02-02 05:38:00,
2013-02-02 00:40:00,49.3,43.4,30.30,NNE,23,1.0,2.0,80,0.00,,,0.00,Wunderground v.1.15,2013-02-02 05:40:00,
2013-02-02 00:41:00,49.3,43.4,30.30,NNE,23,2.0,2.0,80,0.00,,,0.00,Wunderground v.1.15,2013-02-02 05:41:00,
2013-02-02 00:43:00,49.2,43.6,30.30,NNE,23,2.0,2.0,81,0.00,,,0.00,Wunderground v.1.15,2013-02-02 05:43:00,
2013-02-02 00:45:00,49.1,43.5,30.30,NNE,23,2.0,2.0,81,0.00,,,0.00,Wunderground v.1.15,2013-02-02 05:45:00,
2013-02-02 00:46:00,49.1,43.5,30.30,NNE,23,2.0,2.0,81,0.00,,,0.00,Wunderground v.1.15,2013-02-02 05:46:00,
2013-02-02 00:47:00,49.0,43.4,30.31,NNE,23,1.0,2.0,81,0.00,,,0.00,Wunderground v.1.15,2013-02-02 05:47:00,
2013-02-02 00:50:00,48.7,43.1,30.30,NNE,23,1.0,2.0,81,0.00,,,0.00,Wunderground v.1.15,2013-02-02 05:50:00,
2013-02-02 00:51:00,48.7,43.1,30.30,NNE,25,1.0,2.0,81,0.00,,,0.00,Wunderground v.1.15,2013-02-02 05:51:00,
2013-02-02 00:52:00,48.6,43.4,30.30,NNE,25,1.0,2.0,82,0.00,,,0.00,Wunderground v.1.15,2013-02-02 05:52:00,
2013-02-02 00:55:00,48.5,43.3,30.31,NNE,29,1.0,2.0,82,0.00,,,0.00,Wunderground v.1.15,2013-02-02 05:55:00,
2013-02-02 00:57:00,48.4,43.2,30.30,NNE,30,1.0,2.0,82,0.00,,,0.00,Wunderground v.1.15,2013-02-02 05:57:00,
2013-02-02 00:59:00,48.2,43.3,30.31,NNE,16,1.0,2.0,83,0.00,,,0.00,Wunderground v.1.15,2013-02-02 05:59:00,
2013-02-02 01:00:00,48.2,43.3,30.30,North,7,2.0,2.0,83,0.00,,,0.00,Wunderground v.1.15,2013-02-02 06:00:00,
2013-02-02 01:02:00,48.0,43.1,30.31,NNE,23,3.0,3.0,83,0.00,,,0.00,Wunderground v.1.15,2013-02-02 06:02:00,
2013-02-02 01:03:00,48.0,43.1,30.31,NNE,25,2.0,3.0,83,0.00,,,0.00,Wunderground v.1.15,2013-02-02 06:03:00,
2013-02-02 01:07:00,47.8,43.2,30.31,North,355,1.0,3.0,84,0.00,,,0.00,Wunderground v.1.15,2013-02-02 06:07:00,
2013-02-02 01:08:00,47.7,43.1,30.31,North,1,2.0,3.0,84,0.00,,,0.00,Wunderground v.1.15,2013-02-02 06:08:00,
2013-02-02 01:09:00,47.7,43.1,30.31,NNE,19,2.0,2.0,84,0.00,,,0.00,Wunderground v.1.15,2013-02-02 06:09:00,
2013-02-02 01:13:00,47.7,43.1,30.31,NNE,16,2.0,2.0,84,0.00,,,0.00,Wunderground v.1.15,2013-02-02 06:13:00,
2013-02-02 01:14:00,47.7,43.1,30.31,North,5,1.0,2.0,84,0.00,,,0.00,Wunderground v.1.15,2013-02-02 06:14:00,
2013-02-02 01:17:00,47.7,43.1,30.31,NNW,344,3.0,3.0,84,0.00,,,0.00,Wunderground v.1.15,2013-02-02 06:17:00,
2013-02-02 01:20:00,47.7,43.4,30.31,NNE,29,1.0,2.0,85,0.00,,,0.00,Wunderground v.1.15,2013-02-02 06:20:00,
2013-02-02 01:21:00,47.7,43.4,30.31,North,6,3.0,3.0,85,0.00,,,0.00,Wunderground v.1.15,2013-02-02 06:21:00,
2013-02-02 01:22:00,47.7,43.4,30.31,NNE,26,2.0,3.0,85,0.00,,,0.00,Wunderground v.1.15,2013-02-02 06:22:00,
2013-02-02 01:25:00,47.8,43.5,30.31,NNE,18,2.0,3.0,85,0.00,,,0.00,Wunderground v.1.15,2013-02-02 06:25:00,
2013-02-02 01:26:00,47.8,43.5,30.31,NNE,13,4.0,4.0,85,0.00,,,0.00,Wunderground v.1.15,2013-02-02 06:26:00,
2013-02-02 01:27:00,47.8,43.5,30.31,NNE,20,3.0,4.0,85,0.00,,,0.00,Wunderground v.1.15,2013-02-02 06:27:00,
2013-02-02 01:29:00,47.8,43.5,30.31,NNE,13,3.0,4.0,85,0.00,,,0.00,Wunderground v.1.15,2013-02-02 06:29:00,
2013-02-02 01:31:00,47.8,43.5,30.30,NNE,25,3.0,5.0,85,0.00,,,0.00,Wunderground v.1.15,2013-02-02 06:31:00,
2013-02-02 01:33:00,47.8,43.2,30.30,NNE,32,2.0,5.0,84,0.00,,,0.00,Wunderground v.1.15,2013-02-02 06:33:00,
2013-02-02 01:34:00,47.8,43.2,30.30,NNE,26,3.0,5.0,84,0.00,,,0.00,Wunderground v.1.15,2013-02-02 06:34:00,
2013-02-02 01:35:00,47.8,43.2,30.30,NE,36,3.0,5.0,84,0.00,,,0.00,Wunderground v.1.15,2013-02-02 06:35:00,
2013-02-02 01:37:00,47.9,43.3,30.30,NNE,23,1.0,5.0,84,0.00,,,0.00,Wunderground v.1.15,2013-02-02 06:37:00,
2013-02-02 01:42:00,47.9,43.3,30.30,North,356,2.0,5.0,84,0.00,,,0.00,Wunderground v.1.15,2013-02-02 06:42:00,
2013-02-02 01:43:00,47.9,43.3,30.30,NNE,13,4.0,5.0,84,0.00,,,0.00,Wunderground v.1.15,2013-02-02 06:43:00,
2013-02-02 01:44:00,47.9,43.3,30.30,North,5,6.0,6.0,84,0.00,,,0.00,Wunderground v.1.15,2013-02-02 06:44:00,
2013-02-02 01:45:00,47.9,43.3,30.30,NNE,19,2.0,6.0,84,0.00,,,0.00,Wunderground v.1.15,2013-02-02 06:45:00,
2013-02-02 01:47:00,47.9,43.3,30.30,NE,45,3.0,6.0,84,0.00,,,0.00,Wunderground v.1.15,2013-02-02 06:47:00,
2013-02-02 01:49:00,48.0,43.4,30.30,NNE,20,1.0,6.0,84,0.00,,,0.00,Wunderground v.1.15,2013-02-02 06:49:00,
2013-02-02 01:50:00,48.0,43.4,30.30,NNE,20,2.0,3.0,84,0.00,,,0.00,Wunderground v.1.15,2013-02-02 06:50:00,
2013-02-02 01:53:00,48.0,43.4,30.30,North,9,3.0,3.0,84,0.00,,,0.00,Wunderground v.1.15,2013-02-02 06:53:00,
2013-02-02 01:55:00,48.0,43.4,30.30,NNE,33,2.0,3.0,84,0.00,,,0.00,Wunderground v.1.15,2013-02-02 06:55:00,
2013-02-02 01:56:00,48.0,43.4,30.30,NNE,27,3.0,3.0,84,0.00,,,0.00,Wunderground v.1.15,2013-02-02 06:56:00,
2013-02-02 02:00:00,48.0,43.4,30.30,North,352,3.0,3.0,84,0.00,,,0.00,Wunderground v.1.15,2013-02-02 07:00:00,
2013-02-02 02:01:00,48.0,43.4,30.30,NNE,22,4.0,5.0,84,0.00,,,0.00,Wunderground v.1.15,2013-02-02 07:01:00,
2013-02-02 02:05:00,47.9,43.3,30.30,NNE,29,1.0,5.0,84,0.00,,,0.00,Wunderground v.1.15,2013-02-02 07:05:00,
2013-02-02 02:06:00,47.9,43.3,30.30,North,359,3.0,5.0,84,0.00,,,0.00,Wunderground v.1.15,2013-02-02 07:06:00,
2013-02-02 02:10:00,48.0,43.4,30.30,NNE,25,2.0,4.0,84,0.00,,,0.00,Wunderground v.1.15,2013-02-02 07:10:00,
2013-02-02 02:11:00,48.0,43.4,30.30,NNE,13,1.0,4.0,84,0.00,,,0.00,Wunderground v.1.15,2013-02-02 07:11:00,
2013-02-02 02:15:00,48.0,43.4,30.30,North,7,4.0,5.0,84,0.00,,,0.00,Wunderground v.1.15,2013-02-02 07:15:00,
2013-02-02 02:16:00,48.1,43.5,30.30,NNE,29,4.0,5.0,84,0.00,,,0.00,Wunderground v.1.15,2013-02-02 07:16:00,
2013-02-02 02:20:00,48.1,43.5,30.30,North,6,3.0,4.0,84,0.00,,,0.00,Wunderground v.1.15,2013-02-02 07:20:00,
2013-02-02 02:21:00,48.1,43.5,30.30,NNE,22,1.0,4.0,84,0.00,,,0.00,Wunderground v.1.15,2013-02-02 07:21:00,
2013-02-02 02:22:00,48.1,43.5,30.30,NNE,12,4.0,5.0,84,0.00,,,0.00,Wunderground v.1.15,2013-02-02 07:22:00,
2013-02-02 02:25:00,48.1,43.5,30.30,NW,326,2.0,5.0,84,0.00,,,0.00,Wunderground v.1.15,2013-02-02 07:25:00,
2013-02-02 02:26:00,48.2,43.6,30.30,NNE,20,3.0,5.0,84,0.00,,,0.00,Wunderground v.1.15,2013-02-02 07:26:00,
2013-02-02 02:27:00,48.2,43.3,30.30,NNE,20,4.0,5.0,83,0.00,,,0.00,Wunderground v.1.15,2013-02-02 07:27:00,
2013-02-02 02:30:00,48.2,43.3,30.29,NNE,16,3.0,5.0,83,0.00,,,0.00,Wunderground v.1.15,2013-02-02 07:30:00,
2013-02-02 02:31:00,48.2,43.3,30.29,North,11,3.0,5.0,83,0.00,,,0.00,Wunderground v.1.15,2013-02-02 07:31:00,
2013-02-02 02:32:00,48.2,43.3,30.29,NNE,30,3.0,5.0,83,0.00,,,0.00,Wunderground v.1.15,2013-02-02 07:32:00,
2013-02-02 02:35:00,48.2,43.3,30.29,NNE,16,3.0,5.0,83,0.00,,,0.00,Wunderground v.1.15,2013-02-02 07:35:00,
2013-02-02 02:36:00,48.2,43.3,30.29,North,360,3.0,5.0,83,0.00,,,0.00,Wunderground v.1.15,2013-02-02 07:36:00,
2013-02-02 02:37:00,48.2,43.3,30.29,NNW,340,4.0,6.0,83,0.00,,,0.00,Wunderground v.1.15,2013-02-02 07:37:00,
2013-02-02 02:41:00,48.3,43.4,30.29,NNE,26,3.0,6.0,83,0.00,,,0.00,Wunderground v.1.15,2013-02-02 07:41:00,
2013-02-02 02:42:00,48.3,43.4,30.29,NE,36,2.0,6.0,83,0.00,,,0.00,Wunderground v.1.15,2013-02-02 07:42:00,
2013-02-02 02:46:00,48.3,43.1,30.30,NE,44,3.0,8.0,82,0.00,,,0.00,Wunderground v.1.15,2013-02-02 07:46:00,
2013-02-02 02:47:00,48.4,43.2,30.29,NE,50,5.0,8.0,82,0.00,,,0.00,Wunderground v.1.15,2013-02-02 07:47:00,
2013-02-02 02:51:00,48.4,43.2,30.29,NNE,25,2.0,5.0,82,0.00,,,0.00,Wunderground v.1.15,2013-02-02 07:51:00,
2013-02-02 02:52:00,48.4,43.2,30.29,NNE,19,5.0,5.0,82,0.00,,,0.00,Wunderground v.1.15,2013-02-02 07:52:00,
2013-02-02 02:56:00,48.4,43.2,30.29,NE,36,6.0,9.0,82,0.00,,,0.00,Wunderground v.1.15,2013-02-02 07:56:00,
2013-02-02 02:57:00,48.5,43.3,30.29,NNW,343,2.0,9.0,82,0.00,,,0.00,Wunderground v.1.15,2013-02-02 07:57:00,
2013-02-02 03:01:00,48.5,42.9,30.29,NE,38,4.0,5.0,81,0.00,,,0.00,Wunderground v.1.15,2013-02-02 08:01:00,
2013-02-02 03:06:00,48.5,42.9,30.29,NNE,25,7.0,7.0,81,0.00,,,0.00,Wunderground v.1.15,2013-02-02 08:06:00,
2013-02-02 03:07:00,48.6,43.0,30.29,NE,46,4.0,7.0,81,0.00,,,0.00,Wunderground v.1.15,2013-02-02 08:07:00,
2013-02-02 03:11:00,48.6,42.7,30.29,NE,36,5.0,6.0,80,0.00,,,0.00,Wunderground v.1.15,2013-02-02 08:11:00,
2013-02-02 03:12:00,48.7,42.8,30.29,NNE,16,8.0,8.0,80,0.00,,,0.00,Wunderground v.1.15,2013-02-02 08:12:00,
2013-02-02 03:16:00,48.6,42.7,30.29,NE,36,2.0,8.0,80,0.00,,,0.00,Wunderground v.1.15,2013-02-02 08:16:00,
2013-02-02 03:17:00,48.6,42.7,30.29,NNE,23,3.0,8.0,80,0.00,,,0.00,Wunderground v.1.15,2013-02-02 08:17:00,
2013-02-02 03:21:00,48.5,42.6,30.29,NE,41,3.0,9.0,80,0.00,,,0.00,Wunderground v.1.15,2013-02-02 08:21:00,
2013-02-02 03:22:00,48.5,42.6,30.29,ENE,69,2.0,9.0,80,0.00,,,0.00,Wunderground v.1.15,2013-02-02 08:22:00,
2013-02-02 03:26:00,48.5,42.6,30.29,NNE,29,2.0,9.0,80,0.00,,,0.00,Wunderground v.1.15,2013-02-02 08:26:00,
2013-02-02 03:27:00,48.5,42.6,30.29,NNE,32,6.0,9.0,80,0.00,,,0.00,Wunderground v.1.15,2013-02-02 08:27:00,
2013-02-02 03:28:00,48.4,42.5,30.29,NNE,19,5.0,9.0,80,0.00,,,0.00,Wunderground v.1.15,2013-02-02 08:28:00,
2013-02-02 03:31:00,48.3,42.4,30.29,ENE,59,7.0,7.0,80,0.00,,,0.00,Wunderground v.1.15,2013-02-02 08:31:00,
2013-02-02 03:32:00,48.3,42.4,30.29,North,355,6.0,7.0,80,0.00,,,0.00,Wunderground v.1.15,2013-02-02 08:32:00,
2013-02-02 03:33:00,48.3,42.4,30.29,NE,53,2.0,7.0,80,0.00,,,0.00,Wunderground v.1.15,2013-02-02 08:33:00,
2013-02-02 03:36:00,48.2,42.3,30.29,North,354,2.0,8.0,80,0.00,,,0.00,Wunderground v.1.15,2013-02-02 08:36:00,
2013-02-02 03:37:00,48.1,42.2,30.29,North,8,7.0,8.0,80,0.00,,,0.00,Wunderground v.1.15,2013-02-02 08:37:00,
2013-02-02 03:38:00,48.1,42.2,30.29,NNE,15,5.0,8.0,80,0.00,,,0.00,Wunderground v.1.15,2013-02-02 08:38:00,
2013-02-02 03:41:00,48.1,41.9,30.29,NE,47,2.0,9.0,79,0.00,,,0.00,Wunderground v.1.15,2013-02-02 08:41:00,
2013-02-02 03:42:00,48.1,41.9,30.29,NE,53,2.0,9.0,79,0.00,,,0.00,Wunderground v.1.15,2013-02-02 08:42:00,
2013-02-02 03:43:00,48.1,41.9,30.29,NNW,337,5.0,9.0,79,0.00,,,0.00,Wunderground v.1.15,2013-02-02 08:43:00,
2013-02-02 03:47:00,48.1,41.9,30.29,North,360,3.0,9.0,79,0.00,,,0.00,Wunderground v.1.15,2013-02-02 08:47:00,
2013-02-02 03:49:00,48.1,41.9,30.29,North,7,6.0,10.0,79,0.00,,,0.00,Wunderground v.1.15,2013-02-02 08:49:00,
2013-02-02 03:52:00,48.1,41.9,30.29,NNE,31,5.0,9.0,79,0.00,,,0.00,Wunderground v.1.15,2013-02-02 08:52:00,
2013-02-02 03:54:00,48.0,41.8,30.29,East,79,4.0,9.0,79,0.00,,,0.00,Wunderground v.1.15,2013-02-02 08:54:00,
2013-02-02 03:57:00,48.0,41.8,30.29,NE,55,3.0,9.0,79,0.00,,,0.00,Wunderground v.1.15,2013-02-02 08:57:00,
2013-02-02 03:59:00,48.0,41.8,30.29,ENE,60,7.0,9.0,79,0.00,,,0.00,Wunderground v.1.15,2013-02-02 08:59:00,
2013-02-02 04:02:00,47.9,41.7,30.29,ENE,62,2.0,8.0,79,0.00,,,0.00,Wunderground v.1.15,2013-02-02 09:02:00,
2013-02-02 04:04:00,47.9,41.7,30.29,North,8,2.0,9.0,79,0.00,,,0.00,Wunderground v.1.15,2013-02-02 09:04:00,
2013-02-02 04:07:00,47.9,41.7,30.29,NE,46,5.0,9.0,79,0.00,,,0.00,Wunderground v.1.15,2013-02-02 09:07:00,
2013-02-02 04:08:00,47.9,41.7,30.29,NNE,32,4.0,9.0,79,0.00,,,0.00,Wunderground v.1.15,2013-02-02 09:08:00,
2013-02-02 04:09:00,47.9,41.7,30.29,North,356,4.0,9.0,79,0.00,,,0.00,Wunderground v.1.15,2013-02-02 09:09:00,
2013-02-02 04:12:00,47.8,41.6,30.29,NNE,16,6.0,8.0,79,0.00,,,0.00,Wunderground v.1.15,2013-02-02 09:12:00,
2013-02-02 04:13:00,47.8,41.6,30.29,ENE,60,4.0,8.0,79,0.00,,,0.00,Wunderground v.1.15,2013-02-02 09:13:00,
2013-02-02 04:14:00,47.8,41.6,30.29,NNE,27,2.0,8.0,79,0.00,,,0.00,Wunderground v.1.15,2013-02-02 09:14:00,
2013-02-02 04:18:00,47.8,41.6,30.29,ENE,71,4.0,10.0,79,0.00,,,0.00,Wunderground v.1.15,2013-02-02 09:18:00,
2013-02-02 04:19:00,47.7,41.5,30.29,ENE,57,6.0,10.0,79,0.00,,,0.00,Wunderground v.1.15,2013-02-02 09:19:00,
2013-02-02 04:20:00,47.7,41.5,30.29,ENE,60,4.0,5.0,79,0.00,,,0.00,Wunderground v.1.15,2013-02-02 09:20:00,
2013-02-02 04:23:00,47.8,41.3,30.29,NE,36,6.0,11.0,78,0.00,,,0.00,Wunderground v.1.15,2013-02-02 09:23:00,
2013-02-02 04:24:00,47.8,41.3,30.29,NE,41,4.0,11.0,78,0.00,,,0.00,Wunderground v.1.15,2013-02-02 09:24:00,
2013-02-02 04:25:00,47.8,41.3,30.29,NE,40,7.0,11.0,78,0.00,,,0.00,Wunderground v.1.15,2013-02-02 09:25:00,
2013-02-02 04:28:00,47.8,41.3,30.29,NNE,25,5.0,11.0,78,0.00,,,0.00,Wunderground v.1.15,2013-02-02 09:28:00,
2013-02-02 04:30:00,47.8,41.3,30.29,NE,45,4.0,5.0,78,0.00,,,0.00,Wunderground v.1.15,2013-02-02 09:30:00,
2013-02-02 04:33:00,47.7,41.2,30.29,NNE,25,6.0,7.0,78,0.00,,,0.00,Wunderground v.1.15,2013-02-02 09:33:00,
2013-02-02 04:35:00,47.7,41.2,30.29,NE,46,5.0,9.0,78,0.00,,,0.00,Wunderground v.1.15,2013-02-02 09:35:00,
2013-02-02 04:38:00,47.7,41.2,30.29,NE,36,4.0,9.0,78,0.00,,,0.00,Wunderground v.1.15,2013-02-02 09:38:00,
2013-02-02 04:39:00,47.7,41.2,30.29,North,9,4.0,9.0,78,0.00,,,0.00,Wunderground v.1.15,2013-02-02 09:39:00,
2013-02-02 04:40:00,47.7,41.2,30.29,NE,50,3.0,6.0,78,0.00,,,0.00,Wunderground v.1.15,2013-02-02 09:40:00,
2013-02-02 04:44:00,47.5,41.0,30.29,NNE,29,3.0,8.0,78,0.00,,,0.00,Wunderground v.1.15,2013-02-02 09:44:00,
2013-02-02 04:45:00,47.5,41.0,30.29,NNE,28,3.0,8.0,78,0.00,,,0.00,Wunderground v.1.15,2013-02-02 09:45:00,
2013-02-02 04:49:00,47.3,41.1,30.29,ENE,70,2.0,8.0,79,0.00,,,0.00,Wunderground v.1.15,2013-02-02 09:49:00,
2013-02-02 04:50:00,47.3,41.1,30.29,North,359,5.0,6.0,79,0.00,,,0.00,Wunderground v.1.15,2013-02-02 09:50:00,
2013-02-02 04:54:00,47.3,41.1,30.29,NNE,22,5.0,9.0,79,0.00,,,0.00,Wunderground v.1.15,2013-02-02 09:54:00,
2013-02-02 04:55:00,47.3,41.1,30.29,NE,41,2.0,9.0,79,0.00,,,0.00,Wunderground v.1.15,2013-02-02 09:55:00,
2013-02-02 04:59:00,47.2,41.0,30.29,NNW,345,2.0,9.0,79,0.00,,,0.00,Wunderground v.1.15,2013-02-02 09:59:00,
2013-02-02 05:00:00,47.2,41.0,30.29,ENE,57,3.0,4.0,79,0.00,,,0.00,Wunderground v.1.15,2013-02-02 10:00:00,
2013-02-02 05:04:00,47.1,40.9,30.29,NE,44,5.0,6.0,79,0.00,,,0.00,Wunderground v.1.15,2013-02-02 10:04:00,
2013-02-02 05:05:00,47.1,40.9,30.29,NE,37,2.0,6.0,79,0.00,,,0.00,Wunderground v.1.15,2013-02-02 10:05:00,
2013-02-02 05:10:00,47.1,40.9,30.29,NE,43,3.0,6.0,79,0.00,,,0.00,Wunderground v.1.15,2013-02-02 10:10:00,
2013-02-02 05:15:00,47.0,40.8,30.29,NE,39,4.0,8.0,79,0.00,,,0.00,Wunderground v.1.15,2013-02-02 10:15:00,
2013-02-02 05:20:00,46.9,40.7,30.29,NE,56,2.0,4.0,79,0.00,,,0.00,Wunderground v.1.15,2013-02-02 10:20:00,
2013-02-02 05:25:00,46.7,40.5,30.29,North,7,3.0,6.0,79,0.00,,,0.00,Wunderground v.1.15,2013-02-02 10:25:00,
2013-02-02 05:26:00,46.7,40.5,30.29,NE,38,5.0,6.0,79,0.00,,,0.00,Wunderground v.1.15,2013-02-02 10:26:00,
2013-02-02 05:30:00,46.7,40.9,30.29,NNE,22,6.0,6.0,80,0.00,,,0.00,Wunderground v.1.15,2013-02-02 10:30:00,
2013-02-02 05:31:00,46.7,40.9,30.29,NNE,27,3.0,6.0,80,0.00,,,0.00,Wunderground v.1.15,2013-02-02 10:31:00,
2013-02-02 05:35:00,46.6,40.8,30.29,NE,44,2.0,7.0,80,0.00,,,0.00,Wunderground v.1.15,2013-02-02 10:35:00,
2013-02-02 05:36:00,46.5,40.7,30.29,North,6,4.0,7.0,80,0.00,,,0.00,Wunderground v.1.15,2013-02-02 10:36:00,
2013-02-02 05:40:00,46.5,40.7,30.29,NE,41,1.0,5.0,80,0.00,,,0.00,Wunderground v.1.15,2013-02-02 10:40:00,
2013-02-02 05:41:00,46.5,40.7,30.29,NE,39,4.0,5.0,80,0.00,,,0.00,Wunderground v.1.15,2013-02-02 10:41:00,
2013-02-02 05:45:00,46.4,40.6,30.29,NNE,19,4.0,6.0,80,0.00,,,0.00,Wunderground v.1.15,2013-02-02 10:45:00,
2013-02-02 05:46:00,46.4,40.6,30.29,ENE,60,3.0,6.0,80,0.00,,,0.00,Wunderground v.1.15,2013-02-02 10:46:00,
2013-02-02 05:50:00,46.3,40.5,30.29,NNE,32,5.0,5.0,80,0.00,,,0.00,Wunderground v.1.15,2013-02-02 10:50:00,
2013-02-02 05:51:00,46.3,40.5,30.29,ENE,60,2.0,5.0,80,0.00,,,0.00,Wunderground v.1.15,2013-02-02 10:51:00,
2013-02-02 05:52:00,46.3,40.5,30.29,NE,46,3.0,6.0,80,0.00,,,0.00,Wunderground v.1.15,2013-02-02 10:52:00,
2013-02-02 05:56:00,46.2,40.4,30.29,NNE,22,2.0,6.0,80,0.00,,,0.00,Wunderground v.1.15,2013-02-02 10:56:00,
2013-02-02 05:57:00,46.2,40.4,30.29,NNE,20,4.0,6.0,80,0.00,,,0.00,Wunderground v.1.15,2013-02-02 10:57:00,
2013-02-02 06:01:00,46.1,40.3,30.29,NE,44,2.0,4.0,80,0.00,,,0.00,Wunderground v.1.15,2013-02-02 11:01:00,
2013-02-02 06:02:00,46.1,40.3,30.29,NE,38,3.0,4.0,80,0.00,,,0.00,Wunderground v.1.15,2013-02-02 11:02:00,
2013-02-02 06:06:00,45.9,40.1,30.29,ENE,63,2.0,6.0,80,0.00,,,0.00,Wunderground v.1.15,2013-02-02 11:06:00,
2013-02-02 06:07:00,45.9,40.1,30.29,NE,50,2.0,6.0,80,0.00,,,0.00,Wunderground v.1.15,2013-02-02 11:07:00,
2013-02-02 06:11:00,45.7,40.2,30.29,NE,49,3.0,5.0,81,0.00,,,0.00,Wunderground v.1.15,2013-02-02 11:11:00,
2013-02-02 06:12:00,45.8,40.3,30.29,NE,41,6.0,6.0,81,0.00,,,0.00,Wunderground v.1.15,2013-02-02 11:12:00,
2013-02-02 06:16:00,45.7,40.2,30.29,NE,45,2.0,6.0,81,0.00,,,0.00,Wunderground v.1.15,2013-02-02 11:16:00,
2013-02-02 06:17:00,45.7,40.2,30.29,NE,37,5.0,6.0,81,0.00,,,0.00,Wunderground v.1.15,2013-02-02 11:17:00,
2013-02-02 06:21:00,45.6,40.1,30.30,ENE,63,3.0,7.0,81,0.00,,,0.00,Wunderground v.1.15,2013-02-02 11:21:00,
2013-02-02 06:22:00,45.6,40.1,30.30,NNE,31,3.0,7.0,81,0.00,,,0.00,Wunderground v.1.15,2013-02-02 11:22:00,
2013-02-02 06:26:00,45.5,40.0,30.30,NNE,23,5.0,7.0,81,0.00,,,0.00,Wunderground v.1.15,2013-02-02 11:26:00,
2013-02-02 06:27:00,45.6,40.1,30.30,NE,46,4.0,7.0,81,0.00,,,0.00,Wunderground v.1.15,2013-02-02 11:27:00,
2013-02-02 06:31:00,45.4,39.9,30.30,ENE,60,2.0,4.0,81,0.00,,,0.00,Wunderground v.1.15,2013-02-02 11:31:00,
2013-02-02 06:32:00,45.4,39.9,30.30,NNE,33,3.0,4.0,81,0.00,,,0.00,Wunderground v.1.15,2013-02-02 11:32:00,
2013-02-02 06:33:00,45.3,39.8,30.30,NE,39,3.0,4.0,81,0.00,,,0.00,Wunderground v.1.15,2013-02-02 11:33:00,
2013-02-02 06:36:00,45.2,40.0,30.30,NE,37,6.0,6.0,82,0.00,,,0.00,Wunderground v.1.15,2013-02-02 11:36:00,
2013-02-02 06:37:00,45.2,40.0,30.30,NE,41,1.0,6.0,82,0.00,,,0.00,Wunderground v.1.15,2013-02-02 11:37:00,
2013-02-02 06:38:00,45.2,40.0,30.31,NNW,332,2.0,6.0,82,0.00,,,0.00,Wunderground v.1.15,2013-02-02 11:38:00,
2013-02-02 06:42:00,45.2,40.0,30.31,ENE,58,3.0,5.0,82,0.00,,,0.00,Wunderground v.1.15,2013-02-02 11:42:00,
2013-02-02 06:44:00,45.1,39.9,30.31,NE,39,3.0,6.0,82,0.00,,,0.00,Wunderground v.1.15,2013-02-02 11:44:00,
2013-02-02 06:47:00,45.1,39.9,30.31,NE,44,2.0,6.0,82,0.00,,,0.00,Wunderground v.1.15,2013-02-02 11:47:00,
2013-02-02 06:49:00,45.1,39.9,30.31,NNE,33,3.0,8.0,82,0.00,,,0.00,Wunderground v.1.15,2013-02-02 11:49:00,
2013-02-02 06:52:00,45.1,39.9,30.31,NE,36,2.0,6.0,82,0.00,,,0.00,Wunderground v.1.15,2013-02-02 11:52:00,
2013-02-02 06:54:00,45.0,39.8,30.31,NE,44,3.0,6.0,82,0.00,,,0.00,Wunderground v.1.15,2013-02-02 11:54:00,
2013-02-02 06:57:00,45.0,39.8,30.31,NNE,12,4.0,6.0,82,0.00,,,0.00,Wunderground v.1.15,2013-02-02 11:57:00,
2013-02-02 06:58:00,45.0,39.8,30.31,NE,47,6.0,6.0,82,0.00,,,0.00,Wunderground v.1.15,2013-02-02 11:58:00,
2013-02-02 06:59:00,44.9,39.7,30.31,NE,55,1.0,6.0,82,0.00,,,0.00,Wunderground v.1.15,2013-02-02 11:59:00,
2013-02-02 07:02:00,44.9,39.7,30.31,NE,38,3.0,6.0,82,0.00,,,0.00,Wunderground v.1.15,2013-02-02 12:02:00,
2013-02-02 07:03:00,44.8,39.6,30.31,NE,53,3.0,6.0,82,0.00,,,0.00,Wunderground v.1.15,2013-02-02 12:03:00,
2013-02-02 07:04:00,44.8,39.6,30.31,ENE,71,5.0,6.0,82,0.00,,,0.00,Wunderground v.1.15,2013-02-02 12:04:00,
2013-02-02 07:07:00,44.8,39.6,30.31,NE,41,5.0,8.0,82,0.00,,,0.00,Wunderground v.1.15,2013-02-02 12:07:00,
2013-02-02 07:08:00,44.8,39.6,30.31,ENE,64,5.0,8.0,82,0.00,,,0.00,Wunderground v.1.15,2013-02-02 12:08:00,
2013-02-02 07:09:00,44.7,39.5,30.31,NE,44,3.0,8.0,82,0.00,,,0.00,Wunderground v.1.15,2013-02-02 12:09:00,
2013-02-02 07:10:00,44.7,39.5,30.31,NE,44,5.0,6.0,82,0.00,,,0.00,Wunderground v.1.15,2013-02-02 12:10:00,
2013-02-02 07:13:00,44.7,39.5,30.32,NE,49,5.0,8.0,82,0.00,,,0.00,Wunderground v.1.15,2013-02-02 12:13:00,
2013-02-02 07:16:00,44.7,39.5,30.32,NNE,19,4.0,8.0,82,0.00,,,0.00,Wunderground v.1.15,2013-02-02 12:16:00,
2013-02-02 07:18:00,44.7,39.5,30.31,NE,56,4.0,8.0,82,0.00,,,0.00,Wunderground v.1.15,2013-02-02 12:18:00,
2013-02-02 07:19:00,44.7,39.5,30.31,NNE,19,2.0,8.0,82,0.00,,,0.00,Wunderground v.1.15,2013-02-02 12:19:00,
2013-02-02 07:23:00,44.7,39.2,30.31,NE,56,4.0,5.0,81,0.00,,,0.00,Wunderground v.1.15,2013-02-02 12:23:00,
2013-02-02 07:26:00,44.7,39.2,30.31,NE,53,4.0,5.0,81,0.00,,,0.00,Wunderground v.1.15,2013-02-02 12:26:00,
2013-02-02 07:27:00,44.7,39.2,30.31,ENE,57,2.0,5.0,81,0.00,,,0.00,Wunderground v.1.15,2013-02-02 12:27:00,
2013-02-02 07:30:00,44.8,39.3,30.31,ENE,57,7.0,7.0,81,0.00,,,0.00,Wunderground v.1.15,2013-02-02 12:30:00,
2013-02-02 07:32:00,44.9,39.4,30.31,NE,41,3.0,7.0,81,0.00,,,0.00,Wunderground v.1.15,2013-02-02 12:32:00,
2013-02-02 07:35:00,45.0,39.5,30.31,NE,42,3.0,7.0,81,0.00,,,0.00,Wunderground v.1.15,2013-02-02 12:35:00,
2013-02-02 07:38:00,45.3,39.5,30.31,NE,44,5.0,7.0,80,0.00,,,0.00,Wunderground v.1.15,2013-02-02 12:38:00,
2013-02-02 07:39:00,45.3,39.5,30.31,NNE,27,3.0,7.0,80,0.00,,,0.00,Wunderground v.1.15,2013-02-02 12:39:00,
2013-02-02 07:40:00,45.3,39.5,30.31,North,349,2.0,4.0,80,0.00,,,0.00,Wunderground v.1.15,2013-02-02 12:40:00,
2013-02-02 07:43:00,45.6,39.8,30.31,ENE,57,5.0,5.0,80,0.00,,,0.00,Wunderground v.1.15,2013-02-02 12:43:00,
2013-02-02 07:44:00,45.6,39.8,30.31,ENE,64,2.0,5.0,80,0.00,,,0.00,Wunderground v.1.15,2013-02-02 12:44:00,
2013-02-02 07:45:00,45.7,39.9,30.31,NNE,25,3.0,6.0,80,0.00,,,0.00,Wunderground v.1.15,2013-02-02 12:45:00,
2013-02-02 07:48:00,45.8,39.7,30.31,NE,41,4.0,6.0,79,0.00,,,0.00,Wunderground v.1.15,2013-02-02 12:48:00,
2013-02-02 07:49:00,45.9,39.8,30.31,NNE,19,4.0,7.0,79,0.00,,,0.00,Wunderground v.1.15,2013-02-02 12:49:00,
2013-02-02 07:50:00,45.9,39.8,30.31,NE,39,6.0,6.0,79,0.00,,,0.00,Wunderground v.1.15,2013-02-02 12:50:00,
2013-02-02 07:53:00,46.1,39.9,30.31,NE,49,2.0,7.0,79,0.00,,,0.00,Wunderground v.1.15,2013-02-02 12:53:00,
2013-02-02 07:54:00,46.2,39.7,30.32,NE,46,4.0,7.0,78,0.00,,,0.00,Wunderground v.1.15,2013-02-02 12:54:00,
2013-02-02 07:55:00,46.2,39.7,30.32,NE,41,7.0,7.0,78,0.00,,,0.00,Wunderground v.1.15,2013-02-02 12:55:00,
2013-02-02 07:59:00,46.4,39.9,30.32,NE,46,6.0,8.0,78,0.00,,,0.00,Wunderground v.1.15,2013-02-02 12:59:00,
2013-02-02 08:00:00,46.5,40.0,30.32,NE,40,2.0,5.0,78,0.00,,,0.00,Wunderground v.1.15,2013-02-02 13:00:00,
2013-02-02 08:04:00,46.9,40.1,30.32,NNE,29,2.0,8.0,77,0.00,,,0.00,Wunderground v.1.15,2013-02-02 13:04:00,
2013-02-02 08:05:00,46.9,40.1,30.32,NNE,31,5.0,8.0,77,0.00,,,0.00,Wunderground v.1.15,2013-02-02 13:05:00,
2013-02-02 08:09:00,47.3,40.1,30.32,East,89,2.0,8.0,76,0.00,,,0.00,Wunderground v.1.15,2013-02-02 13:09:00,
2013-02-02 08:10:00,47.4,40.2,30.31,NNE,30,6.0,6.0,76,0.00,,,0.00,Wunderground v.1.15,2013-02-02 13:10:00,
2013-02-02 08:14:00,47.8,40.6,30.32,North,11,5.0,7.0,76,0.00,,,0.00,Wunderground v.1.15,2013-02-02 13:14:00,
2013-02-02 08:15:00,47.8,40.6,30.32,NE,43,5.0,7.0,76,0.00,,,0.00,Wunderground v.1.15,2013-02-02 13:15:00,
2013-02-02 08:19:00,48.2,40.6,30.31,NE,47,2.0,8.0,75,0.00,,,0.00,Wunderground v.1.15,2013-02-02 13:19:00,
2013-02-02 08:20:00,48.3,40.7,30.31,NE,39,5.0,5.0,75,0.00,,,0.00,Wunderground v.1.15,2013-02-02 13:20:00,
2013-02-02 08:25:00,48.9,41.0,30.32,NE,39,5.0,7.0,74,0.00,,,0.00,Wunderground v.1.15,2013-02-02 13:25:00,
2013-02-02 08:26:00,49.1,41.2,30.32,NE,47,2.0,7.0,74,0.00,,,0.00,Wunderground v.1.15,2013-02-02 13:26:00,
2013-02-02 08:30:00,49.5,41.2,30.32,East,85,4.0,4.0,73,0.00,,,0.00,Wunderground v.1.15,2013-02-02 13:30:00,
2013-02-02 08:31:00,49.7,41.4,30.32,NE,41,2.0,6.0,73,0.00,,,0.00,Wunderground v.1.15,2013-02-02 13:31:00,
2013-02-02 08:35:00,50.2,41.5,30.31,ENE,73,6.0,10.0,72,0.00,,,0.00,Wunderground v.1.15,2013-02-02 13:35:00,
2013-02-02 08:36:00,50.3,41.6,30.31,NNW,344,5.0,10.0,72,0.00,,,0.00,Wunderground v.1.15,2013-02-02 13:36:00,
2013-02-02 08:40:00,50.9,41.8,30.31,NE,53,5.0,7.0,71,0.00,,,0.00,Wunderground v.1.15,2013-02-02 13:40:00,
2013-02-02 08:41:00,51.0,41.9,30.31,NE,39,3.0,7.0,71,0.00,,,0.00,Wunderground v.1.15,2013-02-02 13:41:00,
2013-02-02 08:45:00,51.5,42.0,30.32,NE,49,3.0,10.0,70,0.00,,,0.00,Wunderground v.1.15,2013-02-02 13:45:00,
2013-02-02 08:46:00,51.5,42.0,30.32,North,6,4.0,10.0,70,0.00,,,0.00,Wunderground v.1.15,2013-02-02 13:46:00,
2013-02-02 08:50:00,52.0,42.5,30.32,NE,53,6.0,7.0,70,0.00,,,0.00,Wunderground v.1.15,2013-02-02 13:50:00,
2013-02-02 08:51:00,52.1,42.6,30.32,NNW,337,4.0,8.0,70,0.00,,,0.00,Wunderground v.1.15,2013-02-02 13:51:00,
2013-02-02 08:55:00,52.5,42.2,30.32,NE,49,3.0,12.0,68,0.00,,,0.00,Wunderground v.1.15,2013-02-02 13:55:00,
2013-02-02 08:56:00,52.6,42.3,30.32,NNE,25,6.0,12.0,68,0.00,,,0.00,Wunderground v.1.15,2013-02-02 13:56:00,
2013-02-02 08:57:00,52.6,42.3,30.32,NE,36,7.0,12.0,68,0.00,,,0.00,Wunderground v.1.15,2013-02-02 13:57:00,
2013-02-02 09:00:00,53.0,42.7,30.32,ENE,75,4.0,6.0,68,0.00,,,0.00,Wunderground v.1.15,2013-02-02 14:00:00,
2013-02-02 09:01:00,53.1,42.8,30.32,NE,41,3.0,6.0,68,0.00,,,0.00,Wunderground v.1.15,2013-02-02 14:01:00,
2013-02-02 09:02:00,53.2,42.9,30.32,ENE,61,3.0,7.0,68,0.00,,,0.00,Wunderground v.1.15,2013-02-02 14:02:00,
2013-02-02 09:05:00,53.6,42.5,30.32,ENE,63,7.0,9.0,66,0.00,,,0.00,Wunderground v.1.15,2013-02-02 14:05:00,
2013-02-02 09:06:00,53.6,42.5,30.32,NE,45,5.0,9.0,66,0.00,,,0.00,Wunderground v.1.15,2013-02-02 14:06:00,
2013-02-02 09:07:00,53.7,42.6,30.32,NE,43,3.0,9.0,66,0.00,,,0.00,Wunderground v.1.15,2013-02-02 14:07:00,
2013-02-02 09:10:00,54.1,42.6,30.32,NNE,29,2.0,6.0,65,0.00,,,0.00,Wunderground v.1.15,2013-02-02 14:10:00,
2013-02-02 09:11:00,54.2,42.7,30.32,NE,47,4.0,6.0,65,0.00,,,0.00,Wunderground v.1.15,2013-02-02 14:11:00,
2013-02-02 09:12:00,54.4,42.9,30.32,ENE,72,3.0,6.0,65,0.00,,,0.00,Wunderground v.1.15,2013-02-02 14:12:00,
2013-02-02 09:15:00,54.7,42.8,30.32,NE,55,5.0,10.0,64,0.00,,,0.00,Wunderground v.1.15,2013-02-02 14:15:00,
2013-02-02 09:16:00,54.8,42.9,30.32,NNE,14,5.0,10.0,64,0.00,,,0.00,Wunderground v.1.15,2013-02-02 14:16:00,
2013-02-02 09:17:00,54.9,42.9,30.32,NNE,30,4.0,10.0,64,0.00,,,0.00,Wunderground v.1.15,2013-02-02 14:17:00,
2013-02-02 09:21:00,55.3,42.9,30.32,ENE,72,4.0,7.0,63,0.00,,,0.00,Wunderground v.1.15,2013-02-02 14:21:00,
2013-02-02 09:22:00,55.5,43.1,30.32,ENE,58,3.0,7.0,63,0.00,,,0.00,Wunderground v.1.15,2013-02-02 14:22:00,
2013-02-02 09:26:00,55.9,43.1,30.32,North,354,3.0,9.0,62,0.00,,,0.00,Wunderground v.1.15,2013-02-02 14:26:00,
2013-02-02 09:27:00,56.1,43.3,30.32,NNE,16,3.0,9.0,62,0.00,,,0.00,Wunderground v.1.15,2013-02-02 14:27:00,
2013-02-02 09:31:00,56.4,42.7,30.32,NE,50,11.0,11.0,60,0.00,,,0.00,Wunderground v.1.15,2013-02-02 14:31:00,
2013-02-02 09:33:00,56.4,42.7,30.32,ENE,68,6.0,12.0,60,0.00,,,0.00,Wunderground v.1.15,2013-02-02 14:33:00,
2013-02-02 09:36:00,56.7,42.5,30.32,NE,38,7.0,12.0,59,0.00,,,0.00,Wunderground v.1.15,2013-02-02 14:36:00,
2013-02-02 09:38:00,56.8,43.1,30.32,NNE,15,6.0,12.0,60,0.00,,,0.00,Wunderground v.1.15,2013-02-02 14:38:00,
2013-02-02 09:41:00,57.4,43.2,30.32,ENE,57,6.0,8.0,59,0.00,,,0.00,Wunderground v.1.15,2013-02-02 14:41:00,
2013-02-02 09:42:00,57.4,43.2,30.32,NNE,23,6.0,8.0,59,0.00,,,0.00,Wunderground v.1.15,2013-02-02 14:42:00,
2013-02-02 09:43:00,57.6,42.9,30.32,ENE,78,4.0,8.0,58,0.00,,,0.00,Wunderground v.1.15,2013-02-02 14:43:00,
2013-02-02 09:46:00,57.9,43.2,30.32,NE,43,2.0,8.0,58,0.00,,,0.00,Wunderground v.1.15,2013-02-02 14:46:00,
2013-02-02 09:47:00,57.9,43.2,30.32,NE,47,5.0,8.0,58,0.00,,,0.00,Wunderground v.1.15,2013-02-02 14:47:00,
2013-02-02 09:49:00,58.2,43.0,30.32,ENE,67,6.0,10.0,57,0.00,,,0.00,Wunderground v.1.15,2013-02-02 14:49:00,
2013-02-02 09:52:00,58.4,42.8,30.32,ENE,70,7.0,9.0,56,0.00,,,0.00,Wunderground v.1.15,2013-02-02 14:52:00,
2013-02-02 09:54:00,58.4,42.8,30.32,East,87,5.0,9.0,56,0.00,,,0.00,Wunderground v.1.15,2013-02-02 14:54:00,
2013-02-02 09:57:00,58.8,43.1,30.32,ENE,70,5.0,9.0,56,0.00,,,0.00,Wunderground v.1.15,2013-02-02 14:57:00,
2013-02-02 09:59:00,59.0,42.8,30.32,ENE,58,7.0,9.0,55,0.00,,,0.00,Wunderground v.1.15,2013-02-02 14:59:00,
2013-02-02 10:02:00,59.4,42.7,30.32,NE,55,3.0,9.0,54,0.00,,,0.00,Wunderground v.1.15,2013-02-02 15:02:00,
2013-02-02 10:04:00,59.7,43.0,30.32,ENE,70,6.0,9.0,54,0.00,,,0.00,Wunderground v.1.15,2013-02-02 15:04:00,
2013-02-02 10:07:00,60.1,42.9,30.32,ENE,67,3.0,9.0,53,0.00,,,0.00,Wunderground v.1.15,2013-02-02 15:07:00,
2013-02-02 10:08:00,60.1,42.9,30.32,East,82,4.0,9.0,53,0.00,,,0.00,Wunderground v.1.15,2013-02-02 15:08:00,
2013-02-02 10:09:00,60.4,43.7,30.32,NE,51,5.0,9.0,54,0.00,,,0.00,Wunderground v.1.15,2013-02-02 15:09:00,
2013-02-02 10:12:00,61.1,43.3,30.32,NE,35,1.0,5.0,52,0.00,,,0.00,Wunderground v.1.15,2013-02-02 15:12:00,
2013-02-02 10:13:00,61.1,43.3,30.32,NE,34,2.0,5.0,52,0.00,,,0.00,Wunderground v.1.15,2013-02-02 15:13:00,
2013-02-02 10:14:00,61.2,42.4,30.31,East,82,2.0,9.0,50,0.00,,,0.00,Wunderground v.1.15,2013-02-02 15:14:00,
2013-02-02 10:17:00,61.2,41.3,30.31,ENE,65,10.0,10.0,48,0.00,,,0.00,Wunderground v.1.15,2013-02-02 15:17:00,
2013-02-02 10:18:00,61.2,41.3,30.31,East,83,10.0,10.0,48,0.00,,,0.00,Wunderground v.1.15,2013-02-02 15:18:00,
2013-02-02 10:19:00,61.2,40.8,30.31,NNE,26,5.0,12.0,47,0.00,,,0.00,Wunderground v.1.15,2013-02-02 15:19:00,
2013-02-02 10:23:00,61.3,40.9,30.31,ENE,67,5.0,9.0,47,0.00,,,0.00,Wunderground v.1.15,2013-02-02 15:23:00,
2013-02-02 10:24:00,61.4,41.0,30.31,East,79,6.0,9.0,47,0.00,,,0.00,Wunderground v.1.15,2013-02-02 15:24:00,
2013-02-02 10:25:00,61.4,41.5,30.31,ENE,72,4.0,9.0,48,0.00,,,0.00,Wunderground v.1.15,2013-02-02 15:25:00,
2013-02-02 10:28:00,61.6,40.6,30.31,East,91,3.0,10.0,46,0.00,,,0.00,Wunderground v.1.15,2013-02-02 15:28:00,
2013-02-02 10:29:00,61.8,40.8,30.31,NE,46,8.0,11.0,46,0.00,,,0.00,Wunderground v.1.15,2013-02-02 15:29:00,
2013-02-02 10:30:00,61.8,40.8,30.31,NE,36,6.0,8.0,46,0.00,,,0.00,Wunderground v.1.15,2013-02-02 15:30:00,
2013-02-02 10:33:00,62.4,41.9,30.31,ENE,58,3.0,8.0,47,0.00,,,0.00,Wunderground v.1.15,2013-02-02 15:33:00,
2013-02-02 10:34:00,62.6,42.1,30.31,ENE,62,5.0,8.0,47,0.00,,,0.00,Wunderground v.1.15,2013-02-02 15:34:00,
2013-02-02 10:35:00,62.7,41.6,30.31,NE,39,5.0,8.0,46,0.00,,,0.00,Wunderground v.1.15,2013-02-02 15:35:00,
2013-02-02 10:38:00,62.8,41.1,30.30,NNE,19,4.0,10.0,45,0.00,,,0.00,Wunderground v.1.15,2013-02-02 15:38:00,
2013-02-02 10:39:00,62.8,41.1,30.30,NNE,13,4.0,10.0,45,0.00,,,0.00,Wunderground v.1.15,2013-02-02 15:39:00,
2013-02-02 10:40:00,62.9,41.2,30.30,NE,46,6.0,6.0,45,0.00,,,0.00,Wunderground v.1.15,2013-02-02 15:40:00,
2013-02-02 10:43:00,63.3,41.6,30.30,ENE,62,4.0,8.0,45,0.00,,,0.00,Wunderground v.1.15,2013-02-02 15:43:00,
2013-02-02 10:44:00,63.4,41.1,30.30,ENE,76,9.0,11.0,44,0.00,,,0.00,Wunderground v.1.15,2013-02-02 15:44:00,
2013-02-02 10:45:00,63.4,40.5,30.30,NE,51,8.0,11.0,43,0.00,,,0.00,Wunderground v.1.15,2013-02-02 15:45:00,
2013-02-02 10:48:00,63.5,40.6,30.30,NNE,27,2.0,11.0,43,0.00,,,0.00,Wunderground v.1.15,2013-02-02 15:48:00,
2013-02-02 10:49:00,63.5,40.6,30.30,ENE,78,3.0,11.0,43,0.00,,,0.00,Wunderground v.1.15,2013-02-02 15:49:00,
2013-02-02 10:50:00,63.7,40.8,30.30,East,80,7.0,7.0,43,0.00,,,0.00,Wunderground v.1.15,2013-02-02 15:50:00,
2013-02-02 10:53:00,63.8,40.3,30.30,East,97,5.0,8.0,42,0.00,,,0.00,Wunderground v.1.15,2013-02-02 15:53:00,
2013-02-02 10:54:00,63.9,41.0,30.30,ENE,72,3.0,8.0,43,0.00,,,0.00,Wunderground v.1.15,2013-02-02 15:54:00,
2013-02-02 10:55:00,64.0,41.0,30.30,NE,49,1.0,8.0,43,0.00,,,0.00,Wunderground v.1.15,2013-02-02 15:55:00,
2013-02-02 10:58:00,64.5,40.3,30.30,NE,56,2.0,10.0,41,0.00,,,0.00,Wunderground v.1.15,2013-02-02 15:58:00,
2013-02-02 10:59:00,64.6,40.4,30.30,NNE,25,6.0,10.0,41,0.00,,,0.00,Wunderground v.1.15,2013-02-02 15:59:00,
2013-02-02 11:00:00,64.7,40.4,30.30,ENE,72,4.0,7.0,41,0.00,,,0.00,Wunderground v.1.15,2013-02-02 16:00:00,
2013-02-02 11:03:00,64.7,39.8,30.30,NE,51,5.0,8.0,40,0.00,,,0.00,Wunderground v.1.15,2013-02-02 16:03:00,
2013-02-02 11:04:00,64.7,39.8,30.30,ENE,67,3.0,8.0,40,0.00,,,0.00,Wunderground v.1.15,2013-02-02 16:04:00,
2013-02-02 11:05:00,64.9,39.3,30.29,NNE,32,4.0,8.0,39,0.00,,,0.00,Wunderground v.1.15,2013-02-02 16:05:00,
2013-02-02 11:08:00,65.0,38.1,30.29,East,79,6.0,11.0,37,0.00,,,0.00,Wunderground v.1.15,2013-02-02 16:08:00,
2013-02-02 11:09:00,65.0,38.1,30.29,ENE,62,3.0,11.0,37,0.00,,,0.00,Wunderground v.1.15,2013-02-02 16:09:00,
2013-02-02 11:11:00,65.0,38.8,30.29,ENE,75,6.0,8.0,38,0.00,,,0.00,Wunderground v.1.15,2013-02-02 16:11:00,
2013-02-02 11:14:00,65.2,38.3,30.29,ENE,70,9.0,11.0,37,0.00,,,0.00,Wunderground v.1.15,2013-02-02 16:14:00,
2013-02-02 11:16:00,65.3,39.0,30.29,ENE,78,6.0,11.0,38,0.00,,,0.00,Wunderground v.1.15,2013-02-02 16:16:00,
2013-02-02 11:19:00,65.7,36.5,30.29,NE,41,3.0,11.0,34,0.00,,,0.00,Wunderground v.1.15,2013-02-02 16:19:00,
2013-02-02 11:21:00,65.9,37.5,30.29,ENE,62,5.0,6.0,35,0.00,,,0.00,Wunderground v.1.15,2013-02-02 16:21:00,
2013-02-02 11:24:00,66.2,37.7,30.29,NE,47,7.0,11.0,35,0.00,,,0.00,Wunderground v.1.15,2013-02-02 16:24:00,
2013-02-02 11:26:00,66.0,37.5,30.29,NNE,33,4.0,11.0,35,0.00,,,0.00,Wunderground v.1.15,2013-02-02 16:26:00,
2013-02-02 11:29:00,66.0,36.8,30.29,East,91,4.0,11.0,34,0.00,,,0.00,Wunderground v.1.15,2013-02-02 16:29:00,
2013-02-02 11:31:00,66.4,39.3,30.29,ENE,72,5.0,6.0,37,0.00,,,0.00,Wunderground v.1.15,2013-02-02 16:31:00,
2013-02-02 11:35:00,66.6,38.8,30.28,NNE,30,9.0,9.0,36,0.00,,,0.00,Wunderground v.1.15,2013-02-02 16:35:00,
2013-02-02 11:36:00,66.5,38.0,30.28,ENE,63,6.0,9.0,35,0.00,,,0.00,Wunderground v.1.15,2013-02-02 16:36:00,
2013-02-02 11:40:00,66.4,38.6,30.28,NE,41,5.0,6.0,36,0.00,,,0.00,Wunderground v.1.15,2013-02-02 16:40:00,
2013-02-02 11:41:00,66.3,38.5,30.28,ESE,108,5.0,10.0,36,0.00,,,0.00,Wunderground v.1.15,2013-02-02 16:41:00,
2013-02-02 11:42:00,66.3,38.5,30.28,East,82,3.0,10.0,36,0.00,,,0.00,Wunderground v.1.15,2013-02-02 16:42:00,
2013-02-02 11:45:00,66.3,38.5,30.28,East,97,4.0,10.0,36,0.00,,,0.00,Wunderground v.1.15,2013-02-02 16:45:00,
2013-02-02 11:46:00,66.3,39.2,30.28,ENE,75,2.0,10.0,37,0.00,,,0.00,Wunderground v.1.15,2013-02-02 16:46:00,
2013-02-02 11:47:00,66.4,39.3,30.28,ENE,60,2.0,10.0,37,0.00,,,0.00,Wunderground v.1.15,2013-02-02 16:47:00,
2013-02-02 11:50:00,66.6,39.5,30.28,NNE,29,3.0,4.0,37,0.00,,,0.00,Wunderground v.1.15,2013-02-02 16:50:00,
2013-02-02 11:51:00,66.8,39.0,30.28,NE,43,5.0,5.0,36,0.00,,,0.00,Wunderground v.1.15,2013-02-02 16:51:00,
2013-02-02 11:52:00,66.8,39.7,30.28,NNW,346,1.0,5.0,37,0.00,,,0.00,Wunderground v.1.15,2013-02-02 16:52:00,
2013-02-02 11:55:00,67.1,39.9,30.28,NW,321,1.0,6.0,37,0.00,,,0.00,Wunderground v.1.15,2013-02-02 16:55:00,
2013-02-02 11:56:00,67.3,39.4,30.28,ESE,105,1.0,6.0,36,0.00,,,0.00,Wunderground v.1.15,2013-02-02 16:56:00,
2013-02-02 11:57:00,67.4,39.5,30.28,ENE,77,2.0,6.0,36,0.00,,,0.00,Wunderground v.1.15,2013-02-02 16:57:00,
2013-02-02 12:00:00,67.7,39.8,30.28,ENE,60,6.0,7.0,36,0.00,,,0.00,Wunderground v.1.15,2013-02-02 17:00:00,
2013-02-02 12:02:00,67.6,39.7,30.28,East,83,4.0,8.0,36,0.00,,,0.00,Wunderground v.1.15,2013-02-02 17:02:00,
2013-02-02 12:05:00,67.8,39.9,30.27,NE,54,2.0,8.0,36,0.00,,,0.00,Wunderground v.1.15,2013-02-02 17:05:00,
2013-02-02 12:06:00,67.9,39.9,30.27,NE,54,0.0,8.0,36,0.00,,,0.00,Wunderground v.1.15,2013-02-02 17:06:00,
2013-02-02 12:07:00,68.1,40.8,30.27,NNE,33,1.0,8.0,37,0.00,,,0.00,Wunderground v.1.15,2013-02-02 17:07:00,
2013-02-02 12:10:00,68.3,39.6,30.27,ENE,67,7.0,8.0,35,0.00,,,0.00,Wunderground v.1.15,2013-02-02 17:10:00,
2013-02-02 12:11:00,68.3,39.6,30.27,ENE,60,4.0,8.0,35,0.00,,,0.00,Wunderground v.1.15,2013-02-02 17:11:00,
2013-02-02 12:12:00,68.2,39.5,30.27,NE,49,4.0,9.0,35,0.00,,,0.00,Wunderground v.1.15,2013-02-02 17:12:00,
2013-02-02 12:15:00,68.3,40.3,30.26,NE,49,5.0,9.0,36,0.00,,,0.00,Wunderground v.1.15,2013-02-02 17:15:00,
2013-02-02 12:16:00,68.3,40.3,30.26,NNE,27,3.0,9.0,36,0.00,,,0.00,Wunderground v.1.15,2013-02-02 17:16:00,
2013-02-02 12:17:00,68.2,39.5,30.26,NNE,18,0.0,9.0,35,0.00,,,0.00,Wunderground v.1.15,2013-02-02 17:17:00,
2013-02-02 12:21:00,68.6,40.6,30.26,East,91,4.0,4.0,36,0.00,,,0.00,Wunderground v.1.15,2013-02-02 17:21:00,
2013-02-02 12:22:00,68.8,40.0,30.26,NE,43,4.0,6.0,35,0.00,,,0.00,Wunderground v.1.15,2013-02-02 17:22:00,
2013-02-02 12:26:00,68.4,41.1,30.26,East,91,5.0,7.0,37,0.00,,,0.00,Wunderground v.1.15,2013-02-02 17:26:00,
2013-02-02 12:27:00,68.5,41.2,30.26,NNE,29,1.0,7.0,37,0.00,,,0.00,Wunderground v.1.15,2013-02-02 17:27:00,
2013-02-02 12:31:00,68.9,41.5,30.26,ENE,64,3.0,4.0,37,0.00,,,0.00,Wunderground v.1.15,2013-02-02 17:31:00,
2013-02-02 12:32:00,68.9,40.8,30.26,NE,54,4.0,6.0,36,0.00,,,0.00,Wunderground v.1.15,2013-02-02 17:32:00,
2013-02-02 12:36:00,69.1,41.0,30.25,ESE,114,3.0,6.0,36,0.00,,,0.00,Wunderground v.1.15,2013-02-02 17:36:00,
2013-02-02 12:37:00,69.2,41.1,30.25,East,91,1.0,6.0,36,0.00,,,0.00,Wunderground v.1.15,2013-02-02 17:37:00,
2013-02-02 12:41:00,69.6,40.7,30.25,ESE,113,3.0,4.0,35,0.00,,,0.00,Wunderground v.1.15,2013-02-02 17:41:00,
2013-02-02 12:42:00,69.7,41.5,30.25,ESE,108,2.0,4.0,36,0.00,,,0.00,Wunderground v.1.15,2013-02-02 17:42:00,
2013-02-02 12:43:00,69.7,41.5,30.25,SSE,163,1.0,4.0,36,0.00,,,0.00,Wunderground v.1.15,2013-02-02 17:43:00,
2013-02-02 12:46:00,69.7,43.6,30.25,East,95,10.0,10.0,39,0.00,,,0.00,Wunderground v.1.15,2013-02-02 17:46:00,
2013-02-02 12:48:00,69.8,44.4,30.25,SE,136,5.0,10.0,40,0.00,,,0.00,Wunderground v.1.15,2013-02-02 17:48:00,
2013-02-02 12:51:00,70.1,44.6,30.25,South,190,1.0,4.0,40,0.00,,,0.00,Wunderground v.1.15,2013-02-02 17:51:00,
2013-02-02 12:53:00,70.3,43.5,30.25,SE,133,0.0,5.0,38,0.00,,,0.00,Wunderground v.1.15,2013-02-02 17:53:00,
2013-02-02 12:56:00,70.2,42.7,30.24,ENE,75,2.0,6.0,37,0.00,,,0.00,Wunderground v.1.15,2013-02-02 17:56:00,
2013-02-02 12:58:00,69.8,43.0,30.24,ENE,71,4.0,6.0,38,0.00,,,0.00,Wunderground v.1.15,2013-02-02 17:58:00,
2013-02-02 13:01:00,69.4,43.4,30.24,East,99,1.0,4.0,39,0.00,,,0.00,Wunderground v.1.15,2013-02-02 18:01:00,
2013-02-02 13:02:00,69.4,43.4,30.24,ESE,121,1.0,4.0,39,0.00,,,0.00,Wunderground v.1.15,2013-02-02 18:02:00,
2013-02-02 13:03:00,69.5,43.4,30.24,South,180,4.0,5.0,39,0.00,,,0.00,Wunderground v.1.15,2013-02-02 18:03:00,
2013-02-02 13:04:00,69.5,43.4,30.24,SSW,203,7.0,7.0,39,0.00,,,0.00,Wunderground v.1.15,2013-02-02 18:04:00,
2013-02-02 13:07:00,70.1,46.6,30.24,South,179,4.0,8.0,43,0.00,,,0.00,Wunderground v.1.15,2013-02-02 18:07:00,
2013-02-02 13:08:00,70.3,46.1,30.24,SW,236,1.0,8.0,42,0.00,,,0.00,Wunderground v.1.15,2013-02-02 18:08:00,
2013-02-02 13:09:00,70.3,46.1,30.24,SW,215,1.0,8.0,42,0.00,,,0.00,Wunderground v.1.15,2013-02-02 18:09:00,
2013-02-02 13:12:00,70.6,46.4,30.23,South,169,2.0,4.0,42,0.00,,,0.00,Wunderground v.1.15,2013-02-02 18:12:00,
2013-02-02 13:14:00,70.9,45.4,30.23,SSE,152,1.0,4.0,40,0.00,,,0.00,Wunderground v.1.15,2013-02-02 18:14:00,
2013-02-02 13:17:00,71.4,46.5,30.23,ESE,111,4.0,5.0,41,0.00,,,0.00,Wunderground v.1.15,2013-02-02 18:17:00,
2013-02-02 13:19:00,71.2,46.3,30.23,ESE,104,4.0,5.0,41,0.00,,,0.00,Wunderground v.1.15,2013-02-02 18:19:00,
2013-02-02 13:22:00,71.0,46.7,30.23,South,174,3.0,10.0,42,0.00,,,0.00,Wunderground v.1.15,2013-02-02 18:22:00,
2013-02-02 13:24:00,70.9,46.7,30.23,SSW,197,3.0,10.0,42,0.00,,,0.00,Wunderground v.1.15,2013-02-02 18:24:00,
2013-02-02 13:27:00,71.0,46.1,30.22,SE,127,4.0,10.0,41,0.00,,,0.00,Wunderground v.1.15,2013-02-02 18:27:00,
2013-02-02 13:29:00,70.7,45.8,30.22,East,92,3.0,10.0,41,0.00,,,0.00,Wunderground v.1.15,2013-02-02 18:29:00,
2013-02-02 13:32:00,70.5,46.3,30.22,NNW,340,1.0,5.0,42,0.00,,,0.00,Wunderground v.1.15,2013-02-02 18:32:00,
2013-02-02 13:33:00,70.5,46.3,30.22,WNW,290,3.0,5.0,42,0.00,,,0.00,Wunderground v.1.15,2013-02-02 18:33:00,
2013-02-02 13:34:00,70.6,45.7,30.22,SW,224,10.0,10.0,41,0.00,,,0.00,Wunderground v.1.15,2013-02-02 18:34:00,
2013-02-02 13:35:00,70.5,45.7,30.22,SW,226,4.0,10.0,41,0.00,,,0.00,Wunderground v.1.15,2013-02-02 18:35:00,
2013-02-02 13:37:00,70.6,45.7,30.22,East,94,5.0,10.0,41,0.00,,,0.00,Wunderground v.1.15,2013-02-02 18:37:00,
2013-02-02 13:38:00,70.6,45.7,30.22,SE,145,4.0,10.0,41,0.00,,,0.00,Wunderground v.1.15,2013-02-02 18:38:00,
2013-02-02 13:39:00,70.7,46.5,30.22,SW,222,5.0,10.0,42,0.00,,,0.00,Wunderground v.1.15,2013-02-02 18:39:00,
2013-02-02 13:40:00,70.8,46.6,30.22,SSW,205,3.0,5.0,42,0.00,,,0.00,Wunderground v.1.15,2013-02-02 18:40:00,
2013-02-02 13:42:00,70.9,46.0,30.22,West,260,4.0,5.0,41,0.00,,,0.00,Wunderground v.1.15,2013-02-02 18:42:00,
2013-02-02 13:43:00,70.9,46.0,30.21,West,259,4.0,5.0,41,0.00,,,0.00,Wunderground v.1.15,2013-02-02 18:43:00,
2013-02-02 13:44:00,70.9,46.0,30.21,SW,233,6.0,6.0,41,0.00,,,0.00,Wunderground v.1.15,2013-02-02 18:44:00,
2013-02-02 13:45:00,70.9,46.0,30.21,SW,229,5.0,7.0,41,0.00,,,0.00,Wunderground v.1.15,2013-02-02 18:45:00,
2013-02-02 13:47:00,70.9,46.0,30.21,WSW,239,2.0,7.0,41,0.00,,,0.00,Wunderground v.1.15,2013-02-02 18:47:00,
2013-02-02 13:48:00,70.9,46.0,30.21,WSW,243,3.0,7.0,41,0.00,,,0.00,Wunderground v.1.15,2013-02-02 18:48:00,
2013-02-02 13:49:00,70.8,45.9,30.21,WSW,255,3.0,7.0,41,0.00,,,0.00,Wunderground v.1.15,2013-02-02 18:49:00,
2013-02-02 13:50:00,70.7,45.2,30.21,WNW,291,7.0,8.0,40,0.00,,,0.00,Wunderground v.1.15,2013-02-02 18:50:00,
2013-02-02 13:52:00,70.2,44.7,30.21,WNW,283,4.0,9.0,40,0.00,,,0.00,Wunderground v.1.15,2013-02-02 18:52:00,
2013-02-02 13:54:00,70.1,45.3,30.21,WNW,293,8.0,9.0,41,0.00,,,0.00,Wunderground v.1.15,2013-02-02 18:54:00,
2013-02-02 13:55:00,69.9,45.1,30.21,WNW,289,6.0,9.0,41,0.00,,,0.00,Wunderground v.1.15,2013-02-02 18:55:00,
2013-02-02 13:58:00,69.7,45.6,30.21,WNW,283,5.0,9.0,42,0.00,,,0.00,Wunderground v.1.15,2013-02-02 18:58:00,
2013-02-02 13:59:00,69.7,46.2,30.21,WNW,296,4.0,9.0,43,0.00,,,0.00,Wunderground v.1.15,2013-02-02 18:59:00,
2013-02-02 14:00:00,69.9,46.4,30.21,West,267,5.0,6.0,43,0.00,,,0.00,Wunderground v.1.15,2013-02-02 19:00:00,
2013-02-02 14:01:00,70.0,46.5,30.21,SW,229,3.0,6.0,43,0.00,,,0.00,Wunderground v.1.15,2013-02-02 19:01:00,
2013-02-02 14:03:00,70.0,47.1,30.21,West,274,5.0,7.0,44,0.00,,,0.00,Wunderground v.1.15,2013-02-02 19:03:00,
2013-02-02 14:04:00,69.9,47.6,30.21,West,281,5.0,9.0,45,0.00,,,0.00,Wunderground v.1.15,2013-02-02 19:04:00,
2013-02-02 14:05:00,69.8,48.1,30.21,West,259,2.0,9.0,46,0.00,,,0.00,Wunderground v.1.15,2013-02-02 19:05:00,
2013-02-02 14:06:00,69.7,48.0,30.21,West,264,5.0,10.0,46,0.00,,,0.00,Wunderground v.1.15,2013-02-02 19:06:00,
2013-02-02 14:08:00,69.5,47.8,30.20,WNW,295,4.0,10.0,46,0.00,,,0.00,Wunderground v.1.15,2013-02-02 19:08:00,
2013-02-02 14:09:00,69.3,47.6,30.20,NW,323,3.0,10.0,46,0.00,,,0.00,Wunderground v.1.15,2013-02-02 19:09:00,
2013-02-02 14:10:00,69.4,48.9,30.21,WSW,249,4.0,7.0,48,0.00,,,0.00,Wunderground v.1.15,2013-02-02 19:10:00,
2013-02-02 14:11:00,69.5,48.9,30.21,West,271,5.0,7.0,48,0.00,,,0.00,Wunderground v.1.15,2013-02-02 19:11:00,
2013-02-02 14:13:00,69.3,48.8,30.21,NW,304,4.0,7.0,48,0.00,,,0.00,Wunderground v.1.15,2013-02-02 19:13:00,
2013-02-02 14:14:00,69.3,48.8,30.20,West,279,6.0,9.0,48,0.00,,,0.00,Wunderground v.1.15,2013-02-02 19:14:00,
2013-02-02 14:16:00,69.2,48.7,30.20,WNW,301,2.0,9.0,48,0.00,,,0.00,Wunderground v.1.15,2013-02-02 19:16:00,
2013-02-02 14:18:00,69.0,49.0,30.20,WSW,257,2.0,9.0,49,0.00,,,0.00,Wunderground v.1.15,2013-02-02 19:18:00,
2013-02-02 14:19:00,69.1,49.1,30.20,WSW,255,8.0,9.0,49,0.00,,,0.00,Wunderground v.1.15,2013-02-02 19:19:00,
2013-02-02 14:21:00,69.1,48.6,30.20,WNW,283,5.0,8.0,48,0.00,,,0.00,Wunderground v.1.15,2013-02-02 19:21:00,
2013-02-02 14:22:00,69.1,48.0,30.20,West,262,7.0,9.0,47,0.00,,,0.00,Wunderground v.1.15,2013-02-02 19:22:00,
2013-02-02 14:24:00,69.0,47.4,30.20,WSW,257,2.0,9.0,46,0.00,,,0.00,Wunderground v.1.15,2013-02-02 19:24:00,
2013-02-02 14:26:00,68.9,47.3,30.20,NW,304,4.0,9.0,46,0.00,,,0.00,Wunderground v.1.15,2013-02-02 19:26:00,
2013-02-02 14:27:00,69.0,49.0,30.20,West,273,4.0,9.0,49,0.00,,,0.00,Wunderground v.1.15,2013-02-02 19:27:00,
2013-02-02 14:29:00,69.2,49.2,30.20,West,281,4.0,9.0,49,0.00,,,0.00,Wunderground v.1.15,2013-02-02 19:29:00,
2013-02-02 14:31:00,69.0,47.9,30.20,WNW,283,6.0,8.0,47,0.00,,,0.00,Wunderground v.1.15,2013-02-02 19:31:00,
2013-02-02 14:32:00,69.1,48.6,30.20,WSW,253,6.0,8.0,48,0.00,,,0.00,Wunderground v.1.15,2013-02-02 19:32:00,
2013-02-02 14:34:00,69.3,47.6,30.20,SW,225,2.0,8.0,46,0.00,,,0.00,Wunderground v.1.15,2013-02-02 19:34:00,
2013-02-02 14:35:00,69.4,48.3,30.20,SSW,210,2.0,8.0,47,0.00,,,0.00,Wunderground v.1.15,2013-02-02 19:35:00,
2013-02-02 14:36:00,69.4,47.7,30.20,NW,319,4.0,8.0,46,0.00,,,0.00,Wunderground v.1.15,2013-02-02 19:36:00,
2013-02-02 14:37:00,69.4,47.7,30.20,West,270,5.0,8.0,46,0.00,,,0.00,Wunderground v.1.15,2013-02-02 19:37:00,
2013-02-02 14:39:00,69.6,47.9,30.20,West,271,3.0,8.0,46,0.00,,,0.00,Wunderground v.1.15,2013-02-02 19:39:00,
2013-02-02 14:40:00,69.6,47.3,30.20,WSW,252,3.0,4.0,45,0.00,,,0.00,Wunderground v.1.15,2013-02-02 19:40:00,
2013-02-02 14:41:00,69.7,48.0,30.20,WNW,283,2.0,4.0,46,0.00,,,0.00,Wunderground v.1.15,2013-02-02 19:41:00,
2013-02-02 14:42:00,69.8,48.1,30.20,West,263,3.0,6.0,46,0.00,,,0.00,Wunderground v.1.15,2013-02-02 19:42:00,
2013-02-02 14:45:00,69.9,47.6,30.20,West,265,5.0,6.0,45,0.00,,,0.00,Wunderground v.1.15,2013-02-02 19:45:00,
2013-02-02 14:46:00,69.9,47.0,30.19,WNW,291,4.0,6.0,44,0.00,,,0.00,Wunderground v.1.15,2013-02-02 19:46:00,
2013-02-02 14:47:00,69.8,46.9,30.20,WNW,302,5.0,8.0,44,0.00,,,0.00,Wunderground v.1.15,2013-02-02 19:47:00,
2013-02-02 14:50:00,69.5,46.6,30.20,NW,319,4.0,5.0,44,0.00,,,0.00,Wunderground v.1.15,2013-02-02 19:50:00,
2013-02-02 14:52:00,69.6,47.3,30.19,WNW,302,4.0,6.0,45,0.00,,,0.00,Wunderground v.1.15,2013-02-02 19:52:00,
2013-02-02 14:55:00,69.6,47.3,30.19,NW,309,6.0,7.0,45,0.00,,,0.00,Wunderground v.1.15,2013-02-02 19:55:00,
2013-02-02 14:57:00,69.7,47.4,30.19,WNW,300,5.0,7.0,45,0.00,,,0.00,Wunderground v.1.15,2013-02-02 19:57:00,
2013-02-02 14:58:00,69.6,46.7,30.19,NW,318,3.0,7.0,44,0.00,,,0.00,Wunderground v.1.15,2013-02-02 19:58:00,
2013-02-02 15:00:00,69.5,47.2,30.19,NW,304,2.0,4.0,45,0.00,,,0.00,Wunderground v.1.15,2013-02-02 20:00:00,
2013-02-02 15:02:00,69.5,47.2,30.19,NW,315,6.0,6.0,45,0.00,,,0.00,Wunderground v.1.15,2013-02-02 20:02:00,
2013-02-02 15:03:00,69.5,47.2,30.19,West,281,7.0,7.0,45,0.00,,,0.00,Wunderground v.1.15,2013-02-02 20:03:00,
2013-02-02 15:05:00,69.3,46.4,30.19,WNW,284,5.0,7.0,44,0.00,,,0.00,Wunderground v.1.15,2013-02-02 20:05:00,
2013-02-02 15:07:00,69.3,47.6,30.19,NW,320,3.0,8.0,46,0.00,,,0.00,Wunderground v.1.15,2013-02-02 20:07:00,
2013-02-02 15:08:00,69.3,47.6,30.19,WNW,294,5.0,8.0,46,0.00,,,0.00,Wunderground v.1.15,2013-02-02 20:08:00,
2013-02-02 15:10:00,69.2,46.9,30.19,WNW,296,5.0,5.0,45,0.00,,,0.00,Wunderground v.1.15,2013-02-02 20:10:00,
2013-02-02 15:12:00,69.0,46.8,30.19,WNW,300,5.0,7.0,45,0.00,,,0.00,Wunderground v.1.15,2013-02-02 20:12:00,
2013-02-02 15:13:00,69.0,47.4,30.19,WNW,298,3.0,7.0,46,0.00,,,0.00,Wunderground v.1.15,2013-02-02 20:13:00,
2013-02-02 15:15:00,69.2,48.1,30.19,West,273,2.0,7.0,47,0.00,,,0.00,Wunderground v.1.15,2013-02-02 20:15:00,
2013-02-02 15:17:00,69.5,46.6,30.19,WSW,239,4.0,7.0,44,0.00,,,0.00,Wunderground v.1.15,2013-02-02 20:17:00,
2013-02-02 15:18:00,69.4,46.5,30.19,WSW,248,5.0,7.0,44,0.00,,,0.00,Wunderground v.1.15,2013-02-02 20:18:00,
2013-02-02 15:20:00,69.3,47.0,30.19,WNW,285,5.0,7.0,45,0.00,,,0.00,Wunderground v.1.15,2013-02-02 20:20:00,
2013-02-02 15:23:00,69.3,48.2,30.19,West,281,3.0,8.0,47,0.00,,,0.00,Wunderground v.1.15,2013-02-02 20:23:00,
2013-02-02 15:26:00,69.2,48.7,30.18,WNW,283,3.0,8.0,48,0.00,,,0.00,Wunderground v.1.15,2013-02-02 20:26:00,
2013-02-02 15:28:00,69.3,48.8,30.18,WNW,287,4.0,8.0,48,0.00,,,0.00,Wunderground v.1.15,2013-02-02 20:28:00,
2013-02-02 15:31:00,69.4,47.7,30.18,WSW,242,2.0,6.0,46,0.00,,,0.00,Wunderground v.1.15,2013-02-02 20:31:00,
2013-02-02 15:33:00,69.2,48.7,30.18,West,281,6.0,8.0,48,0.00,,,0.00,Wunderground v.1.15,2013-02-02 20:33:00,
2013-02-02 15:34:00,69.2,48.7,30.18,WNW,285,8.0,8.0,48,0.00,,,0.00,Wunderground v.1.15,2013-02-02 20:34:00,
2013-02-02 15:36:00,69.2,48.1,30.18,WNW,302,3.0,8.0,47,0.00,,,0.00,Wunderground v.1.15,2013-02-02 20:36:00,
2013-02-02 15:39:00,69.1,48.6,30.18,WNW,290,5.0,8.0,48,0.00,,,0.00,Wunderground v.1.15,2013-02-02 20:39:00,
2013-02-02 15:41:00,69.0,49.0,30.18,West,279,3.0,7.0,49,0.00,,,0.00,Wunderground v.1.15,2013-02-02 20:41:00,
2013-02-02 15:44:00,68.9,49.5,30.18,West,276,2.0,7.0,50,0.00,,,0.00,Wunderground v.1.15,2013-02-02 20:44:00,
2013-02-02 15:46:00,68.8,49.9,30.18,WNW,294,6.0,9.0,51,0.00,,,0.00,Wunderground v.1.15,2013-02-02 20:46:00,
2013-02-02 15:49:00,68.8,49.4,30.18,West,278,6.0,9.0,50,0.00,,,0.00,Wunderground v.1.15,2013-02-02 20:49:00,
2013-02-02 15:51:00,68.6,48.7,30.18,West,264,2.0,6.0,49,0.00,,,0.00,Wunderground v.1.15,2013-02-02 20:51:00,
2013-02-02 15:52:00,68.6,48.7,30.18,WNW,287,5.0,6.0,49,0.00,,,0.00,Wunderground v.1.15,2013-02-02 20:52:00,
2013-02-02 15:54:00,68.8,49.4,30.18,NNW,337,4.0,6.0,50,0.00,,,0.00,Wunderground v.1.15,2013-02-02 20:54:00,
2013-02-02 15:56:00,68.7,48.2,30.18,WNW,295,6.0,10.0,48,0.00,,,0.00,Wunderground v.1.15,2013-02-02 20:56:00,
2013-02-02 15:57:00,68.6,48.1,30.18,West,269,6.0,10.0,48,0.00,,,0.00,Wunderground v.1.15,2013-02-02 20:57:00,
2013-02-02 15:59:00,68.5,48.0,30.18,NE,46,4.0,10.0,48,0.00,,,0.00,Wunderground v.1.15,2013-02-02 20:59:00,
2013-02-02 16:01:00,68.6,48.1,30.18,WNW,299,4.0,6.0,48,0.00,,,0.00,Wunderground v.1.15,2013-02-02 21:01:00,
2013-02-02 16:02:00,68.7,48.2,30.18,West,265,4.0,6.0,48,0.00,,,0.00,Wunderground v.1.15,2013-02-02 21:02:00,
2013-02-02 16:04:00,68.8,48.3,30.18,WSW,256,3.0,8.0,48,0.00,,,0.00,Wunderground v.1.15,2013-02-02 21:04:00,
2013-02-02 16:06:00,68.9,47.8,30.18,WNW,298,4.0,8.0,47,0.00,,,0.00,Wunderground v.1.15,2013-02-02 21:06:00,
2013-02-02 16:07:00,69.0,48.5,30.18,SW,225,2.0,8.0,48,0.00,,,0.00,Wunderground v.1.15,2013-02-02 21:07:00,
2013-02-02 16:09:00,69.1,48.6,30.18,SSW,212,4.0,8.0,48,0.00,,,0.00,Wunderground v.1.15,2013-02-02 21:09:00,
2013-02-02 16:12:00,69.0,47.9,30.18,West,262,8.0,8.0,47,0.00,,,0.00,Wunderground v.1.15,2013-02-02 21:12:00,
2013-02-02 16:14:00,68.8,47.7,30.18,WNW,285,3.0,8.0,47,0.00,,,0.00,Wunderground v.1.15,2013-02-02 21:14:00,
2013-02-02 16:17:00,68.8,47.7,30.18,NW,317,3.0,8.0,47,0.00,,,0.00,Wunderground v.1.15,2013-02-02 21:17:00,
2013-02-02 16:19:00,68.7,48.2,30.18,WNW,287,3.0,8.0,48,0.00,,,0.00,Wunderground v.1.15,2013-02-02 21:19:00,
2013-02-02 16:22:00,68.6,47.6,30.18,WNW,290,7.0,7.0,47,0.00,,,0.00,Wunderground v.1.15,2013-02-02 21:22:00,
2013-02-02 16:24:00,68.6,48.1,30.18,West,271,2.0,8.0,48,0.00,,,0.00,Wunderground v.1.15,2013-02-02 21:24:00,
2013-02-02 16:25:00,68.6,48.1,30.18,West,278,3.0,8.0,48,0.00,,,0.00,Wunderground v.1.15,2013-02-02 21:25:00,
2013-02-02 16:27:00,68.6,48.1,30.18,WSW,249,3.0,8.0,48,0.00,,,0.00,Wunderground v.1.15,2013-02-02 21:27:00,
2013-02-02 16:29:00,68.5,48.0,30.18,WNW,295,4.0,8.0,48,0.00,,,0.00,Wunderground v.1.15,2013-02-02 21:29:00,
2013-02-02 16:30:00,68.5,48.0,30.18,WNW,284,4.0,5.0,48,0.00,,,0.00,Wunderground v.1.15,2013-02-02 21:30:00,
2013-02-02 16:32:00,68.4,48.5,30.18,WNW,288,3.0,6.0,49,0.00,,,0.00,Wunderground v.1.15,2013-02-02 21:32:00,
2013-02-02 16:33:00,68.3,48.4,30.18,WNW,293,3.0,6.0,49,0.00,,,0.00,Wunderground v.1.15,2013-02-02 21:33:00,
2013-02-02 16:34:00,68.3,48.4,30.18,NW,326,6.0,7.0,49,0.00,,,0.00,Wunderground v.1.15,2013-02-02 21:34:00,
2013-02-02 16:35:00,68.3,48.4,30.18,WNW,288,2.0,7.0,49,0.00,,,0.00,Wunderground v.1.15,2013-02-02 21:35:00,
2013-02-02 16:37:00,68.3,48.4,30.18,NW,305,4.0,7.0,49,0.00,,,0.00,Wunderground v.1.15,2013-02-02 21:37:00,
2013-02-02 16:38:00,68.4,49.0,30.18,West,268,2.0,7.0,50,0.00,,,0.00,Wunderground v.1.15,2013-02-02 21:38:00,
2013-02-02 16:39:00,68.4,48.5,30.18,WNW,295,5.0,7.0,49,0.00,,,0.00,Wunderground v.1.15,2013-02-02 21:39:00,
2013-02-02 16:40:00,68.4,48.5,30.18,West,259,6.0,6.0,49,0.00,,,0.00,Wunderground v.1.15,2013-02-02 21:40:00,
2013-02-02 16:42:00,68.3,48.4,30.18,WNW,283,6.0,7.0,49,0.00,,,0.00,Wunderground v.1.15,2013-02-02 21:42:00,
2013-02-02 16:43:00,68.3,47.8,30.18,WNW,297,5.0,7.0,48,0.00,,,0.00,Wunderground v.1.15,2013-02-02 21:43:00,
2013-02-02 16:44:00,68.1,48.2,30.18,West,260,3.0,7.0,49,0.00,,,0.00,Wunderground v.1.15,2013-02-02 21:44:00,
2013-02-02 16:45:00,68.2,48.3,30.18,WNW,287,4.0,7.0,49,0.00,,,0.00,Wunderground v.1.15,2013-02-02 21:45:00,
2013-02-02 16:47:00,68.1,47.7,30.18,WNW,298,4.0,7.0,48,0.00,,,0.00,Wunderground v.1.15,2013-02-02 21:47:00,
2013-02-02 16:48:00,68.0,47.6,30.18,WNW,290,6.0,7.0,48,0.00,,,0.00,Wunderground v.1.15,2013-02-02 21:48:00,
2013-02-02 16:49:00,67.9,48.0,30.18,WNW,291,5.0,6.0,49,0.00,,,0.00,Wunderground v.1.15,2013-02-02 21:49:00,
2013-02-02 16:50:00,67.9,48.0,30.18,NW,304,4.0,6.0,49,0.00,,,0.00,Wunderground v.1.15,2013-02-02 21:50:00,
2013-02-02 16:52:00,67.8,49.0,30.18,WNW,295,7.0,9.0,51,0.00,,,0.00,Wunderground v.1.15,2013-02-02 21:52:00,
2013-02-02 16:53:00,67.8,49.0,30.18,NW,319,5.0,9.0,51,0.00,,,0.00,Wunderground v.1.15,2013-02-02 21:53:00,
2013-02-02 16:55:00,67.7,48.9,30.18,WNW,290,6.0,9.0,51,0.00,,,0.00,Wunderground v.1.15,2013-02-02 21:55:00,
2013-02-02 16:57:00,67.7,48.9,30.18,West,262,4.0,9.0,51,0.00,,,0.00,Wunderground v.1.15,2013-02-02 21:57:00,
2013-02-02 16:58:00,67.6,48.8,30.18,NW,316,7.0,9.0,51,0.00,,,0.00,Wunderground v.1.15,2013-02-02 21:58:00,
2013-02-02 17:00:00,67.6,48.8,30.18,WNW,288,1.0,6.0,51,0.00,,,0.00,Wunderground v.1.15,2013-02-02 22:00:00,
2013-02-02 17:02:00,67.6,48.8,30.18,WNW,290,2.0,7.0,51,0.00,,,0.00,Wunderground v.1.15,2013-02-02 22:02:00,
2013-02-02 17:03:00,67.5,48.7,30.18,NW,312,6.0,8.0,51,0.00,,,0.00,Wunderground v.1.15,2013-02-02 22:03:00,
2013-02-02 17:05:00,67.4,48.6,30.18,West,274,2.0,8.0,51,0.00,,,0.00,Wunderground v.1.15,2013-02-02 22:05:00,
2013-02-02 17:07:00,67.5,48.7,30.18,WNW,285,5.0,8.0,51,0.00,,,0.00,Wunderground v.1.15,2013-02-02 22:07:00,
2013-02-02 17:09:00,67.4,48.6,30.18,West,281,3.0,8.0,51,0.00,,,0.00,Wunderground v.1.15,2013-02-02 22:09:00,
2013-02-02 17:10:00,67.4,49.2,30.18,WNW,300,4.0,8.0,52,0.00,,,0.00,Wunderground v.1.15,2013-02-02 22:10:00,
2013-02-02 17:13:00,67.4,49.2,30.18,NW,307,4.0,8.0,52,0.00,,,0.00,Wunderground v.1.15,2013-02-02 22:13:00,
2013-02-02 17:14:00,67.3,49.1,30.18,WNW,298,1.0,8.0,52,0.00,,,0.00,Wunderground v.1.15,2013-02-02 22:14:00,
2013-02-02 17:15:00,67.3,49.6,30.18,NNW,344,2.0,8.0,53,0.00,,,0.00,Wunderground v.1.15,2013-02-02 22:15:00,
2013-02-02 17:17:00,67.3,49.1,30.18,WNW,300,7.0,8.0,52,0.00,,,0.00,Wunderground v.1.15,2013-02-02 22:17:00,
2013-02-02 17:19:00,67.3,49.1,30.18,West,267,5.0,8.0,52,0.00,,,0.00,Wunderground v.1.15,2013-02-02 22:19:00,
2013-02-02 17:20:00,67.2,49.0,30.18,WNW,298,4.0,8.0,52,0.00,,,0.00,Wunderground v.1.15,2013-02-02 22:20:00,
2013-02-02 17:23:00,67.2,49.5,30.18,WNW,285,4.0,8.0,53,0.00,,,0.00,Wunderground v.1.15,2013-02-02 22:23:00,
2013-02-02 17:24:00,67.2,49.5,30.18,NW,307,5.0,8.0,53,0.00,,,0.00,Wunderground v.1.15,2013-02-02 22:24:00,
2013-02-02 17:25:00,67.2,49.5,30.18,NW,312,2.0,8.0,53,0.00,,,0.00,Wunderground v.1.15,2013-02-02 22:25:00,
2013-02-02 17:28:00,67.2,50.0,30.18,WNW,293,3.0,8.0,54,0.00,,,0.00,Wunderground v.1.15,2013-02-02 22:28:00,
2013-02-02 17:29:00,67.2,50.0,30.18,NW,317,2.0,8.0,54,0.00,,,0.00,Wunderground v.1.15,2013-02-02 22:29:00,
2013-02-02 17:31:00,67.1,50.4,30.18,NW,307,4.0,4.0,55,0.00,,,0.00,Wunderground v.1.15,2013-02-02 22:31:00,
2013-02-02 17:33:00,67.1,50.9,30.18,WNW,301,3.0,5.0,56,0.00,,,0.00,Wunderground v.1.15,2013-02-02 22:33:00,
2013-02-02 17:35:00,66.9,51.6,30.18,NW,326,4.0,8.0,58,0.00,,,0.00,Wunderground v.1.15,2013-02-02 22:35:00,
2013-02-02 17:36:00,66.8,52.0,30.18,WNW,283,3.0,8.0,59,0.00,,,0.00,Wunderground v.1.15,2013-02-02 22:36:00,
2013-02-02 17:38:00,66.6,52.3,30.18,NW,312,2.0,8.0,60,0.00,,,0.00,Wunderground v.1.15,2013-02-02 22:38:00,
2013-02-02 17:40:00,66.4,52.1,30.18,NW,319,7.0,7.0,60,0.00,,,0.00,Wunderground v.1.15,2013-02-02 22:40:00,
2013-02-02 17:41:00,66.3,52.0,30.18,West,281,5.0,8.0,60,0.00,,,0.00,Wunderground v.1.15,2013-02-02 22:41:00,
2013-02-02 17:43:00,66.1,51.8,30.18,WNW,298,6.0,8.0,60,0.00,,,0.00,Wunderground v.1.15,2013-02-02 22:43:00,
2013-02-02 17:45:00,65.9,51.6,30.18,NW,319,4.0,8.0,60,0.00,,,0.00,Wunderground v.1.15,2013-02-02 22:45:00,
2013-02-02 17:46:00,65.9,51.6,30.18,WNW,295,5.0,8.0,60,0.00,,,0.00,Wunderground v.1.15,2013-02-02 22:46:00,
2013-02-02 17:48:00,65.7,51.9,30.18,NW,326,6.0,8.0,61,0.00,,,0.00,Wunderground v.1.15,2013-02-02 22:48:00,
2013-02-02 17:50:00,65.6,51.8,30.18,NW,320,6.0,6.0,61,0.00,,,0.00,Wunderground v.1.15,2013-02-02 22:50:00,
2013-02-02 17:51:00,65.6,51.8,30.18,NW,319,3.0,6.0,61,0.00,,,0.00,Wunderground v.1.15,2013-02-02 22:51:00,
2013-02-02 17:53:00,65.4,51.6,30.18,WNW,293,2.0,6.0,61,0.00,,,0.00,Wunderground v.1.15,2013-02-02 22:53:00,
2013-02-02 17:55:00,65.3,51.5,30.18,NW,309,1.0,6.0,61,0.00,,,0.00,Wunderground v.1.15,2013-02-02 22:55:00,
2013-02-02 17:56:00,65.3,51.5,30.18,West,278,3.0,6.0,61,0.00,,,0.00,Wunderground v.1.15,2013-02-02 22:56:00,
2013-02-02 17:58:00,65.2,51.4,30.18,WNW,290,2.0,6.0,61,0.00,,,0.00,Wunderground v.1.15,2013-02-02 22:58:00,
2013-02-02 18:00:00,65.1,51.3,30.18,NW,319,4.0,4.0,61,0.00,,,0.00,Wunderground v.1.15,2013-02-02 23:00:00,
2013-02-02 18:01:00,65.0,51.2,30.18,NW,305,2.0,4.0,61,0.00,,,0.00,Wunderground v.1.15,2013-02-02 23:01:00,
2013-02-02 18:02:00,65.0,50.8,30.18,NW,308,1.0,4.0,60,0.00,,,0.00,Wunderground v.1.15,2013-02-02 23:02:00,
2013-02-02 18:03:00,64.9,50.7,30.18,WNW,290,5.0,5.0,60,0.00,,,0.00,Wunderground v.1.15,2013-02-02 23:03:00,
2013-02-02 18:06:00,64.7,50.9,30.18,NW,314,2.0,5.0,61,0.00,,,0.00,Wunderground v.1.15,2013-02-02 23:06:00,
2013-02-02 18:07:00,64.6,50.4,30.18,WNW,301,3.0,5.0,60,0.00,,,0.00,Wunderground v.1.15,2013-02-02 23:07:00,
2013-02-02 18:08:00,64.5,50.7,30.18,WNW,302,1.0,5.0,61,0.00,,,0.00,Wunderground v.1.15,2013-02-02 23:08:00,
2013-02-02 18:11:00,64.3,50.6,30.18,NW,321,1.0,5.0,61,0.00,,,0.00,Wunderground v.1.15,2013-02-02 23:11:00,
2013-02-02 18:12:00,64.1,50.4,30.18,WNW,294,2.0,5.0,61,0.00,,,0.00,Wunderground v.1.15,2013-02-02 23:12:00,
2013-02-02 18:14:00,64.0,50.7,30.18,NNW,332,3.0,5.0,62,0.00,,,0.00,Wunderground v.1.15,2013-02-02 23:14:00,
2013-02-02 18:16:00,63.8,50.5,30.18,NNW,333,4.0,6.0,62,0.00,,,0.00,Wunderground v.1.15,2013-02-02 23:16:00,
2013-02-02 18:17:00,63.7,50.4,30.18,NW,314,4.0,6.0,62,0.00,,,0.00,Wunderground v.1.15,2013-02-02 23:17:00,
2013-02-02 18:19:00,63.6,50.3,30.18,NW,309,3.0,6.0,62,0.00,,,0.00,Wunderground v.1.15,2013-02-02 23:19:00,
2013-02-02 18:21:00,63.5,50.2,30.18,NW,314,2.0,5.0,62,0.00,,,0.00,Wunderground v.1.15,2013-02-02 23:21:00,
2013-02-02 18:22:00,63.4,50.1,30.18,NNW,330,1.0,5.0,62,0.00,,,0.00,Wunderground v.1.15,2013-02-02 23:22:00,
2013-02-02 18:24:00,63.3,50.1,30.18,WNW,283,4.0,5.0,62,0.00,,,0.00,Wunderground v.1.15,2013-02-02 23:24:00,
2013-02-02 18:26:00,63.2,49.5,30.18,NW,318,2.0,5.0,61,0.00,,,0.00,Wunderground v.1.15,2013-02-02 23:26:00,
2013-02-02 18:27:00,63.1,49.4,30.18,WNW,301,3.0,5.0,61,0.00,,,0.00,Wunderground v.1.15,2013-02-02 23:27:00,
2013-02-02 18:29:00,63.0,49.3,30.18,NW,314,2.0,5.0,61,0.00,,,0.00,Wunderground v.1.15,2013-02-02 23:29:00,
2013-02-02 18:31:00,63.0,49.3,30.18,WNW,302,4.0,5.0,61,0.00,,,0.00,Wunderground v.1.15,2013-02-02 23:31:00,
2013-02-02 18:32:00,63.0,49.3,30.18,NNW,340,2.0,5.0,61,0.00,,,0.00,Wunderground v.1.15,2013-02-02 23:32:00,
2013-02-02 18:34:00,63.0,49.3,30.18,NW,321,3.0,5.0,61,0.00,,,0.00,Wunderground v.1.15,2013-02-02 23:34:00,
2013-02-02 18:36:00,62.9,49.7,30.18,WNW,290,4.0,6.0,62,0.00,,,0.00,Wunderground v.1.15,2013-02-02 23:36:00,
2013-02-02 18:37:00,62.9,49.7,30.18,NW,323,3.0,6.0,62,0.00,,,0.00,Wunderground v.1.15,2013-02-02 23:37:00,
2013-02-02 18:38:00,62.9,49.2,30.18,WNW,284,2.0,6.0,61,0.00,,,0.00,Wunderground v.1.15,2013-02-02 23:38:00,
2013-02-02 18:39:00,62.9,49.7,30.18,West,278,3.0,6.0,62,0.00,,,0.00,Wunderground v.1.15,2013-02-02 23:39:00,
2013-02-02 18:41:00,62.8,49.6,30.18,NW,322,1.0,3.0,62,0.00,,,0.00,Wunderground v.1.15,2013-02-02 23:41:00,
2013-02-02 18:42:00,62.8,49.6,30.18,WNW,295,2.0,3.0,62,0.00,,,0.00,Wunderground v.1.15,2013-02-02 23:42:00,
2013-02-02 18:43:00,62.7,49.1,30.18,WNW,302,2.0,5.0,61,0.00,,,0.00,Wunderground v.1.15,2013-02-02 23:43:00,
2013-02-02 18:44:00,62.7,49.1,30.18,WNW,291,2.0,5.0,61,0.00,,,0.00,Wunderground v.1.15,2013-02-02 23:44:00,
2013-02-02 18:46:00,62.6,49.0,30.18,WNW,300,4.0,5.0,61,0.00,,,0.00,Wunderground v.1.15,2013-02-02 23:46:00,
2013-02-02 18:47:00,62.6,49.0,30.18,NW,308,2.0,6.0,61,0.00,,,0.00,Wunderground v.1.15,2013-02-02 23:47:00,
2013-02-02 18:48:00,62.6,49.0,30.18,WNW,297,3.0,6.0,61,0.00,,,0.00,Wunderground v.1.15,2013-02-02 23:48:00,
2013-02-02 18:49:00,62.6,49.0,30.18,WNW,290,4.0,6.0,61,0.00,,,0.00,Wunderground v.1.15,2013-02-02 23:49:00,
2013-02-02 18:51:00,62.5,49.3,30.18,NW,320,4.0,6.0,62,0.00,,,0.00,Wunderground v.1.15,2013-02-02 23:51:00,
2013-02-02 18:52:00,62.5,49.3,30.18,NW,312,2.0,6.0,62,0.00,,,0.00,Wunderground v.1.15,2013-02-02 23:52:00,
2013-02-02 18:53:00,62.5,49.3,30.18,WNW,294,3.0,6.0,62,0.00,,,0.00,Wunderground v.1.15,2013-02-02 23:53:00,
2013-02-02 18:54:00,62.4,49.2,30.18,WNW,302,1.0,6.0,62,0.00,,,0.00,Wunderground v.1.15,2013-02-02 23:54:00,
2013-02-02 18:57:00,62.4,49.6,30.19,West,279,3.0,6.0,63,0.00,,,0.00,Wunderground v.1.15,2013-02-02 23:57:00,
2013-02-02 18:58:00,62.3,50.4,30.19,WNW,288,2.0,6.0,65,0.00,,,0.00,Wunderground v.1.15,2013-02-02 23:58:00,
2013-02-02 18:59:00,62.3,50.4,30.19,WNW,301,4.0,6.0,65,0.00,,,0.00,Wunderground v.1.15,2013-02-02 23:59:00,
2013-02-02 19:02:00,62.3,50.8,30.19,WNW,294,2.0,6.0,66,0.00,,,0.00,Wunderground v.1.15,2013-02-03 00:02:00,
2013-02-02 19:03:00,62.2,50.7,30.19,NW,312,3.0,6.0,66,0.00,,,0.00,Wunderground v.1.15,2013-02-03 00:03:00,
2013-02-02 19:04:00,62.2,51.1,30.18,WNW,288,1.0,6.0,67,0.00,,,0.00,Wunderground v.1.15,2013-02-03 00:04:00,
2013-02-02 19:07:00,62.1,51.8,30.19,NNW,334,2.0,6.0,69,0.00,,,0.00,Wunderground v.1.15,2013-02-03 00:07:00,
2013-02-02 19:08:00,62.1,52.2,30.19,NW,305,5.0,6.0,70,0.00,,,0.00,Wunderground v.1.15,2013-02-03 00:08:00,
2013-02-02 19:09:00,62.1,52.6,30.19,NNW,335,3.0,6.0,71,0.00,,,0.00,Wunderground v.1.15,2013-02-03 00:09:00,
2013-02-02 19:10:00,62.1,52.6,30.19,WNW,296,4.0,4.0,71,0.00,,,0.00,Wunderground v.1.15,2013-02-03 00:10:00,
2013-02-02 19:12:00,62.1,52.6,30.19,NW,311,5.0,6.0,71,0.00,,,0.00,Wunderground v.1.15,2013-02-03 00:12:00,
2013-02-02 19:13:00,62.0,52.9,30.19,NW,320,4.0,6.0,72,0.00,,,0.00,Wunderground v.1.15,2013-02-03 00:13:00,
2013-02-02 19:14:00,62.0,52.9,30.19,NW,314,2.0,8.0,72,0.00,,,0.00,Wunderground v.1.15,2013-02-03 00:14:00,
2013-02-02 19:15:00,62.0,52.9,30.19,NNW,342,4.0,8.0,72,0.00,,,0.00,Wunderground v.1.15,2013-02-03 00:15:00,
2013-02-02 19:17:00,61.9,52.8,30.19,NW,319,4.0,8.0,72,0.00,,,0.00,Wunderground v.1.15,2013-02-03 00:17:00,
2013-02-02 19:18:00,61.9,52.8,30.19,NW,312,4.0,8.0,72,0.00,,,0.00,Wunderground v.1.15,2013-02-03 00:18:00,
2013-02-02 19:19:00,61.8,52.7,30.19,NNW,340,3.0,8.0,72,0.00,,,0.00,Wunderground v.1.15,2013-02-03 00:19:00,
2013-02-02 19:20:00,61.8,52.7,30.19,NW,312,2.0,8.0,72,0.00,,,0.00,Wunderground v.1.15,2013-02-03 00:20:00,
2013-02-02 19:22:00,61.7,52.6,30.19,NNW,334,6.0,9.0,72,0.00,,,0.00,Wunderground v.1.15,2013-02-03 00:22:00,
2013-02-02 19:23:00,61.7,52.6,30.19,NNW,333,5.0,9.0,72,0.00,,,0.00,Wunderground v.1.15,2013-02-03 00:23:00,
2013-02-02 19:24:00,61.7,52.6,30.19,NW,310,3.0,9.0,72,0.00,,,0.00,Wunderground v.1.15,2013-02-03 00:24:00,
2013-02-02 19:25:00,61.7,52.6,30.19,NW,326,5.0,9.0,72,0.00,,,0.00,Wunderground v.1.15,2013-02-03 00:25:00,
2013-02-02 19:27:00,61.7,52.6,30.19,WNW,291,3.0,9.0,72,0.00,,,0.00,Wunderground v.1.15,2013-02-03 00:27:00,
2013-02-02 19:28:00,61.7,52.6,30.19,WNW,300,4.0,9.0,72,0.00,,,0.00,Wunderground v.1.15,2013-02-03 00:28:00,
2013-02-02 19:29:00,61.6,52.5,30.19,NW,326,5.0,9.0,72,0.00,,,0.00,Wunderground v.1.15,2013-02-03 00:29:00,
2013-02-02 19:31:00,61.6,52.9,30.19,West,276,5.0,6.0,73,0.00,,,0.00,Wunderground v.1.15,2013-02-03 00:31:00,
2013-02-02 19:32:00,61.6,52.9,30.19,NW,305,6.0,7.0,73,0.00,,,0.00,Wunderground v.1.15,2013-02-03 00:32:00,
2013-02-02 19:33:00,61.5,52.8,30.19,WNW,291,5.0,8.0,73,0.00,,,0.00,Wunderground v.1.15,2013-02-03 00:33:00,
2013-02-02 19:35:00,61.5,52.8,30.19,NW,319,5.0,8.0,73,0.00,,,0.00,Wunderground v.1.15,2013-02-03 00:35:00,
2013-02-02 19:36:00,61.5,52.8,30.19,WNW,301,4.0,8.0,73,0.00,,,0.00,Wunderground v.1.15,2013-02-03 00:36:00,
2013-02-02 19:38:00,61.4,52.7,30.19,NW,309,3.0,8.0,73,0.00,,,0.00,Wunderground v.1.15,2013-02-03 00:38:00,
2013-02-02 19:40:00,61.4,52.7,30.19,NW,321,3.0,5.0,73,0.00,,,0.00,Wunderground v.1.15,2013-02-03 00:40:00,
2013-02-02 19:41:00,61.3,52.6,30.19,NNW,330,4.0,6.0,73,0.00,,,0.00,Wunderground v.1.15,2013-02-03 00:41:00,
2013-02-02 19:43:00,61.3,52.6,30.19,NNW,330,3.0,6.0,73,0.00,,,0.00,Wunderground v.1.15,2013-02-03 00:43:00,
2013-02-02 19:45:00,61.3,52.6,30.19,NW,312,3.0,6.0,73,0.00,,,0.00,Wunderground v.1.15,2013-02-03 00:45:00,
2013-02-02 19:46:00,61.2,52.5,30.19,WNW,283,2.0,6.0,73,0.00,,,0.00,Wunderground v.1.15,2013-02-03 00:46:00,
2013-02-02 19:48:00,61.2,52.5,30.19,NW,318,1.0,6.0,73,0.00,,,0.00,Wunderground v.1.15,2013-02-03 00:48:00,
2013-02-02 19:49:00,61.2,52.5,30.19,NW,315,0.0,6.0,73,0.00,,,0.00,Wunderground v.1.15,2013-02-03 00:49:00,
2013-02-02 19:50:00,61.1,52.7,30.19,NW,318,4.0,5.0,74,0.00,,,0.00,Wunderground v.1.15,2013-02-03 00:50:00,
2013-02-02 19:51:00,61.1,52.7,30.19,NNW,327,3.0,6.0,74,0.00,,,0.00,Wunderground v.1.15,2013-02-03 00:51:00,
2013-02-02 19:54:00,61.1,52.7,30.19,NW,308,4.0,7.0,74,0.00,,,0.00,Wunderground v.1.15,2013-02-03 00:54:00,
2013-02-02 19:55:00,61.1,52.7,30.19,WNW,303,1.0,7.0,74,0.00,,,0.00,Wunderground v.1.15,2013-02-03 00:55:00,
2013-02-02 19:56:00,61.1,52.7,30.20,NW,322,2.0,7.0,74,0.00,,,0.00,Wunderground v.1.15,2013-02-03 00:56:00,
2013-02-02 19:59:00,61.0,52.7,30.20,WNW,301,2.0,7.0,74,0.00,,,0.00,Wunderground v.1.15,2013-02-03 00:59:00,
2013-02-02 20:00:00,61.0,53.0,30.20,NW,326,6.0,6.0,75,0.00,,,0.00,Wunderground v.1.15,2013-02-03 01:00:00,
2013-02-02 20:01:00,61.0,53.0,30.20,NNW,327,4.0,6.0,75,0.00,,,0.00,Wunderground v.1.15,2013-02-03 01:01:00,
2013-02-02 20:04:00,60.9,52.9,30.20,NW,319,3.0,7.0,75,0.00,,,0.00,Wunderground v.1.15,2013-02-03 01:04:00,
2013-02-02 20:05:00,60.9,52.9,30.20,NW,323,3.0,7.0,75,0.00,,,0.00,Wunderground v.1.15,2013-02-03 01:05:00,
2013-02-02 20:06:00,60.9,52.9,30.20,NW,323,4.0,7.0,75,0.00,,,0.00,Wunderground v.1.15,2013-02-03 01:06:00,
2013-02-02 20:09:00,60.9,52.9,30.19,NW,319,6.0,7.0,75,0.00,,,0.00,Wunderground v.1.15,2013-02-03 01:09:00,
2013-02-02 20:10:00,60.9,52.9,30.20,NNW,347,5.0,6.0,75,0.00,,,0.00,Wunderground v.1.15,2013-02-03 01:10:00,
2013-02-02 20:11:00,60.8,52.8,30.19,NW,326,5.0,7.0,75,0.00,,,0.00,Wunderground v.1.15,2013-02-03 01:11:00,
2013-02-02 20:14:00,60.8,52.8,30.20,NNW,347,2.0,7.0,75,0.00,,,0.00,Wunderground v.1.15,2013-02-03 01:14:00,
2013-02-02 20:15:00,60.8,52.8,30.20,NW,315,3.0,7.0,75,0.00,,,0.00,Wunderground v.1.15,2013-02-03 01:15:00,
2013-02-02 20:16:00,60.8,52.8,30.19,NNW,340,4.0,10.0,75,0.00,,,0.00,Wunderground v.1.15,2013-02-03 01:16:00,
2013-02-02 20:19:00,60.8,52.8,30.19,NW,319,3.0,10.0,75,0.00,,,0.00,Wunderground v.1.15,2013-02-03 01:19:00,
2013-02-02 20:20:00,60.8,52.8,30.19,NNW,334,3.0,7.0,75,0.00,,,0.00,Wunderground v.1.15,2013-02-03 01:20:00,
2013-02-02 20:22:00,60.8,52.8,30.19,WNW,297,4.0,7.0,75,0.00,,,0.00,Wunderground v.1.15,2013-02-03 01:22:00,
2013-02-02 20:24:00,60.8,52.8,30.19,NW,320,1.0,7.0,75,0.00,,,0.00,Wunderground v.1.15,2013-02-03 01:24:00,
2013-02-02 20:25:00,60.8,53.2,30.19,NW,321,2.0,7.0,76,0.00,,,0.00,Wunderground v.1.15,2013-02-03 01:25:00,
2013-02-02 20:26:00,60.8,53.2,30.19,NNW,330,6.0,7.0,76,0.00,,,0.00,Wunderground v.1.15,2013-02-03 01:26:00,
2013-02-02 20:27:00,60.8,53.2,30.19,NW,317,6.0,8.0,76,0.00,,,0.00,Wunderground v.1.15,2013-02-03 01:27:00,
2013-02-02 20:29:00,60.7,53.1,30.19,WNW,301,3.0,8.0,76,0.00,,,0.00,Wunderground v.1.15,2013-02-03 01:29:00,
2013-02-02 20:30:00,60.7,53.1,30.19,NW,318,2.0,4.0,76,0.00,,,0.00,Wunderground v.1.15,2013-02-03 01:30:00,
2013-02-02 20:31:00,60.7,53.1,30.19,NW,312,3.0,4.0,76,0.00,,,0.00,Wunderground v.1.15,2013-02-03 01:31:00,
2013-02-02 20:32:00,60.7,53.1,30.19,NNW,328,3.0,4.0,76,0.00,,,0.00,Wunderground v.1.15,2013-02-03 01:32:00,
2013-02-02 20:35:00,60.6,53.0,30.20,WNW,302,1.0,5.0,76,0.00,,,0.00,Wunderground v.1.15,2013-02-03 01:35:00,
2013-02-02 20:36:00,60.6,53.3,30.20,NW,315,4.0,5.0,77,0.00,,,0.00,Wunderground v.1.15,2013-02-03 01:36:00,
2013-02-02 20:37:00,60.5,53.3,30.20,NNW,335,4.0,5.0,77,0.00,,,0.00,Wunderground v.1.15,2013-02-03 01:37:00,
2013-02-02 20:40:00,60.5,53.3,30.20,NW,308,3.0,4.0,77,0.00,,,0.00,Wunderground v.1.15,2013-02-03 01:40:00,
2013-02-02 20:41:00,60.5,53.3,30.20,NW,307,4.0,4.0,77,0.00,,,0.00,Wunderground v.1.15,2013-02-03 01:41:00,
2013-02-02 20:42:00,60.4,53.2,30.20,NNW,335,1.0,5.0,77,0.00,,,0.00,Wunderground v.1.15,2013-02-03 01:42:00,
2013-02-02 20:45:00,60.4,53.2,30.20,NW,319,4.0,8.0,77,0.00,,,0.00,Wunderground v.1.15,2013-02-03 01:45:00,
2013-02-02 20:46:00,60.4,53.2,30.20,NW,325,2.0,8.0,77,0.00,,,0.00,Wunderground v.1.15,2013-02-03 01:46:00,
2013-02-02 20:47:00,60.3,53.4,30.20,NNW,344,5.0,8.0,78,0.00,,,0.00,Wunderground v.1.15,2013-02-03 01:47:00,
2013-02-02 20:50:00,60.3,53.4,30.20,NW,314,3.0,4.0,78,0.00,,,0.00,Wunderground v.1.15,2013-02-03 01:50:00,
2013-02-02 20:51:00,60.3,53.4,30.20,NW,315,4.0,6.0,78,0.00,,,0.00,Wunderground v.1.15,2013-02-03 01:51:00,
2013-02-02 20:52:00,60.3,53.4,30.20,NW,315,3.0,8.0,78,0.00,,,0.00,Wunderground v.1.15,2013-02-03 01:52:00,
2013-02-02 20:55:00,60.2,53.0,30.20,NNW,332,6.0,8.0,77,0.00,,,0.00,Wunderground v.1.15,2013-02-03 01:55:00,
2013-02-02 20:56:00,60.1,52.9,30.20,NW,305,6.0,10.0,77,0.00,,,0.00,Wunderground v.1.15,2013-02-03 01:56:00,
2013-02-02 20:58:00,60.1,52.9,30.20,West,277,4.0,10.0,77,0.00,,,0.00,Wunderground v.1.15,2013-02-03 01:58:00,
2013-02-02 21:00:00,60.1,52.9,30.20,NW,326,4.0,7.0,77,0.00,,,0.00,Wunderground v.1.15,2013-02-03 02:00:00,
2013-02-02 21:01:00,60.1,52.5,30.20,NW,320,4.0,7.0,76,0.00,,,0.00,Wunderground v.1.15,2013-02-03 02:01:00,
2013-02-02 21:02:00,60.1,52.5,30.20,North,6,3.0,7.0,76,0.00,,,0.00,Wunderground v.1.15,2013-02-03 02:02:00,
2013-02-02 21:03:00,60.1,52.5,30.20,NW,319,4.0,9.0,76,0.00,,,0.00,Wunderground v.1.15,2013-02-03 02:03:00,
2013-02-02 21:06:00,60.1,52.5,30.20,NW,318,5.0,10.0,76,0.00,,,0.00,Wunderground v.1.15,2013-02-03 02:06:00,
2013-02-02 21:07:00,60.1,52.5,30.20,North,360,9.0,10.0,76,0.00,,,0.00,Wunderground v.1.15,2013-02-03 02:07:00,
2013-02-02 21:08:00,60.1,52.5,30.20,NW,305,4.0,10.0,76,0.00,,,0.00,Wunderground v.1.15,2013-02-03 02:08:00,
2013-02-02 21:11:00,60.1,52.5,30.20,WNW,296,2.0,5.0,76,0.00,,,0.00,Wunderground v.1.15,2013-02-03 02:11:00,
2013-02-02 21:12:00,60.1,52.5,30.20,NW,319,2.0,6.0,76,0.00,,,0.00,Wunderground v.1.15,2013-02-03 02:12:00,
2013-02-02 21:13:00,60.0,52.4,30.20,West,281,2.0,6.0,76,0.00,,,0.00,Wunderground v.1.15,2013-02-03 02:13:00,
2013-02-02 21:16:00,59.9,52.3,30.20,West,280,3.0,7.0,76,0.00,,,0.00,Wunderground v.1.15,2013-02-03 02:16:00,
2013-02-02 21:18:00,59.9,52.0,30.20,NNW,332,6.0,8.0,75,0.00,,,0.00,Wunderground v.1.15,2013-02-03 02:18:00,
2013-02-02 21:21:00,59.9,52.0,30.20,NNW,327,2.0,4.0,75,0.00,,,0.00,Wunderground v.1.15,2013-02-03 02:21:00,
2013-02-02 21:23:00,59.9,52.0,30.20,North,349,3.0,4.0,75,0.00,,,0.00,Wunderground v.1.15,2013-02-03 02:23:00,
2013-02-02 21:26:00,59.8,51.9,30.20,NW,322,3.0,5.0,75,0.00,,,0.00,Wunderground v.1.15,2013-02-03 02:26:00,
2013-02-02 21:27:00,59.8,51.9,30.20,North,352,1.0,5.0,75,0.00,,,0.00,Wunderground v.1.15,2013-02-03 02:27:00,
2013-02-02 21:28:00,59.7,51.8,30.20,NNW,336,2.0,5.0,75,0.00,,,0.00,Wunderground v.1.15,2013-02-03 02:28:00,
2013-02-02 21:29:00,59.7,51.8,30.20,NNW,347,2.0,5.0,75,0.00,,,0.00,Wunderground v.1.15,2013-02-03 02:29:00,
2013-02-02 21:31:00,59.6,51.7,30.20,NNW,334,2.0,4.0,75,0.00,,,0.00,Wunderground v.1.15,2013-02-03 02:31:00,
2013-02-02 21:32:00,59.5,51.6,30.20,North,3,5.0,5.0,75,0.00,,,0.00,Wunderground v.1.15,2013-02-03 02:32:00,
2013-02-02 21:33:00,59.4,51.5,30.20,NNW,343,3.0,5.0,75,0.00,,,0.00,Wunderground v.1.15,2013-02-03 02:33:00,
2013-02-02 21:34:00,59.4,51.5,30.20,NNW,347,3.0,5.0,75,0.00,,,0.00,Wunderground v.1.15,2013-02-03 02:34:00,
2013-02-02 21:36:00,59.2,51.3,30.20,NNE,23,3.0,5.0,75,0.00,,,0.00,Wunderground v.1.15,2013-02-03 02:36:00,
2013-02-02 21:37:00,59.2,51.3,30.20,NW,325,5.0,5.0,75,0.00,,,0.00,Wunderground v.1.15,2013-02-03 02:37:00,
2013-02-02 21:39:00,59.1,51.2,30.20,NNW,330,4.0,6.0,75,0.00,,,0.00,Wunderground v.1.15,2013-02-03 02:39:00,
2013-02-02 21:42:00,59.1,50.8,30.20,NNW,335,5.0,6.0,74,0.00,,,0.00,Wunderground v.1.15,2013-02-03 02:42:00,
2013-02-02 21:44:00,59.0,50.7,30.20,NNW,346,3.0,6.0,74,0.00,,,0.00,Wunderground v.1.15,2013-02-03 02:44:00,
2013-02-02 21:47:00,58.9,50.6,30.20,NNW,335,2.0,7.0,74,0.00,,,0.00,Wunderground v.1.15,2013-02-03 02:47:00,
2013-02-02 21:49:00,58.8,50.5,30.20,NNE,16,1.0,7.0,74,0.00,,,0.00,Wunderground v.1.15,2013-02-03 02:49:00,
2013-02-02 21:52:00,58.7,50.4,30.19,NW,326,4.0,4.0,74,0.00,,,0.00,Wunderground v.1.15,2013-02-03 02:52:00,
2013-02-02 21:53:00,58.6,50.3,30.19,North,355,2.0,5.0,74,0.00,,,0.00,Wunderground v.1.15,2013-02-03 02:53:00,
2013-02-02 21:54:00,58.6,50.3,30.19,NNW,334,4.0,5.0,74,0.00,,,0.00,Wunderground v.1.15,2013-02-03 02:54:00,
2013-02-02 21:57:00,58.4,50.1,30.19,NNE,32,5.0,6.0,74,0.00,,,0.00,Wunderground v.1.15,2013-02-03 02:57:00,
2013-02-02 21:58:00,58.4,50.1,30.19,NNW,328,4.0,6.0,74,0.00,,,0.00,Wunderground v.1.15,2013-02-03 02:58:00,
2013-02-02 21:59:00,58.4,50.1,30.19,NW,314,2.0,6.0,74,0.00,,,0.00,Wunderground v.1.15,2013-02-03 02:59:00,
2013-02-02 22:02:00,58.2,50.0,30.19,NW,323,1.0,5.0,74,0.00,,,0.00,Wunderground v.1.15,2013-02-03 03:02:00,
2013-02-02 22:03:00,58.1,49.9,30.19,North,7,4.0,5.0,74,0.00,,,0.00,Wunderground v.1.15,2013-02-03 03:03:00,
2013-02-02 22:04:00,58.1,49.9,30.19,NW,314,3.0,5.0,74,0.00,,,0.00,Wunderground v.1.15,2013-02-03 03:04:00,
2013-02-02 22:05:00,58.0,49.8,30.19,NNE,18,2.0,5.0,74,0.00,,,0.00,Wunderground v.1.15,2013-02-03 03:05:00,
2013-02-02 22:07:00,57.9,49.7,30.19,NNW,340,3.0,5.0,74,0.00,,,0.00,Wunderground v.1.15,2013-02-03 03:07:00,
2013-02-02 22:08:00,57.9,50.0,30.19,NNW,332,3.0,5.0,75,0.00,,,0.00,Wunderground v.1.15,2013-02-03 03:08:00,
2013-02-02 22:09:00,57.9,50.0,30.19,North,358,3.0,6.0,75,0.00,,,0.00,Wunderground v.1.15,2013-02-03 03:09:00,
2013-02-02 22:10:00,57.9,50.0,30.19,NW,319,2.0,3.0,75,0.00,,,0.00,Wunderground v.1.15,2013-02-03 03:10:00,
2013-02-02 22:12:00,57.8,49.6,30.19,NNW,340,3.0,6.0,74,0.00,,,0.00,Wunderground v.1.15,2013-02-03 03:12:00,
2013-02-02 22:14:00,57.7,49.5,30.19,NNW,347,4.0,6.0,74,0.00,,,0.00,Wunderground v.1.15,2013-02-03 03:14:00,
2013-02-02 22:15:00,57.7,49.5,30.19,NNW,330,3.0,6.0,74,0.00,,,0.00,Wunderground v.1.15,2013-02-03 03:15:00,
2013-02-02 22:17:00,57.6,49.4,30.19,NNW,345,3.0,6.0,74,0.00,,,0.00,Wunderground v.1.15,2013-02-03 03:17:00,
2013-02-02 22:19:00,57.6,49.4,30.19,NNE,20,4.0,7.0,74,0.00,,,0.00,Wunderground v.1.15,2013-02-03 03:19:00,
2013-02-02 22:20:00,57.6,49.4,30.19,NNE,18,3.0,3.0,74,0.00,,,0.00,Wunderground v.1.15,2013-02-03 03:20:00,
2013-02-02 22:22:00,57.6,49.4,30.19,NW,312,3.0,7.0,74,0.00,,,0.00,Wunderground v.1.15,2013-02-03 03:22:00,
2013-02-02 22:24:00,57.5,49.3,30.19,NW,326,3.0,7.0,74,0.00,,,0.00,Wunderground v.1.15,2013-02-03 03:24:00,
2013-02-02 22:25:00,57.5,49.3,30.19,NNW,341,1.0,7.0,74,0.00,,,0.00,Wunderground v.1.15,2013-02-03 03:25:00,
2013-02-02 22:28:00,57.5,49.6,30.19,North,3,2.0,7.0,75,0.00,,,0.00,Wunderground v.1.15,2013-02-03 03:28:00,
2013-02-02 22:29:00,57.4,49.5,30.19,NNW,338,1.0,7.0,75,0.00,,,0.00,Wunderground v.1.15,2013-02-03 03:29:00,
2013-02-02 22:30:00,57.4,49.5,30.19,North,356,3.0,3.0,75,0.00,,,0.00,Wunderground v.1.15,2013-02-03 03:30:00,
2013-02-02 22:33:00,57.3,49.4,30.19,North,352,2.0,4.0,75,0.00,,,0.00,Wunderground v.1.15,2013-02-03 03:33:00,
2013-02-02 22:34:00,57.2,49.3,30.19,North,359,2.0,4.0,75,0.00,,,0.00,Wunderground v.1.15,2013-02-03 03:34:00,
2013-02-02 22:35:00,57.2,49.3,30.19,North,359,3.0,4.0,75,0.00,,,0.00,Wunderground v.1.15,2013-02-03 03:35:00,
2013-02-02 22:38:00,57.1,49.2,30.19,NNE,12,3.0,5.0,75,0.00,,,0.00,Wunderground v.1.15,2013-02-03 03:38:00,
2013-02-02 22:39:00,57.0,49.2,30.19,NNW,346,2.0,5.0,75,0.00,,,0.00,Wunderground v.1.15,2013-02-03 03:39:00,
2013-02-02 22:40:00,57.0,49.2,30.19,North,354,2.0,4.0,75,0.00,,,0.00,Wunderground v.1.15,2013-02-03 03:40:00,
2013-02-02 22:43:00,56.9,49.1,30.19,North,353,2.0,4.0,75,0.00,,,0.00,Wunderground v.1.15,2013-02-03 03:43:00,
2013-02-02 22:44:00,56.8,49.0,30.19,NW,311,2.0,4.0,75,0.00,,,0.00,Wunderground v.1.15,2013-02-03 03:44:00,
2013-02-02 22:45:00,56.8,49.0,30.19,NNW,329,2.0,4.0,75,0.00,,,0.00,Wunderground v.1.15,2013-02-03 03:45:00,
2013-02-02 22:46:00,56.8,49.0,30.19,NNW,345,2.0,4.0,75,0.00,,,0.00,Wunderground v.1.15,2013-02-03 03:46:00,
2013-02-02 22:48:00,56.7,48.9,30.19,North,349,0.0,4.0,75,0.00,,,0.00,Wunderground v.1.15,2013-02-03 03:48:00,
2013-02-02 22:50:00,56.6,48.8,30.19,NNW,343,0.0,2.0,75,0.00,,,0.00,Wunderground v.1.15,2013-02-03 03:50:00,
2013-02-02 22:51:00,56.6,48.8,30.19,North,1,0.0,2.0,75,0.00,,,0.00,Wunderground v.1.15,2013-02-03 03:51:00,
2013-02-02 22:53:00,56.5,48.7,30.19,NNW,334,0.0,2.0,75,0.00,,,0.00,Wunderground v.1.15,2013-02-03 03:53:00,
2013-02-02 22:55:00,56.5,49.0,30.19,NNW,340,0.0,2.0,76,0.00,,,0.00,Wunderground v.1.15,2013-02-03 03:55:00,
2013-02-02 22:56:00,56.5,49.0,30.19,NNW,347,0.0,2.0,76,0.00,,,0.00,Wunderground v.1.15,2013-02-03 03:56:00,
2013-02-02 22:58:00,56.4,48.9,30.19,NNW,334,0.0,2.0,76,0.00,,,0.00,Wunderground v.1.15,2013-02-03 03:58:00,
2013-02-02 23:00:00,56.3,48.8,30.19,North,349,0.0,0.0,76,0.00,,,0.00,Wunderground v.1.15,2013-02-03 04:00:00,
2013-02-02 23:01:00,56.3,48.5,30.19,NNW,340,0.0,0.0,75,0.00,,,0.00,Wunderground v.1.15,2013-02-03 04:01:00,
2013-02-02 23:04:00,56.2,48.7,30.19,North,349,1.0,2.0,76,0.00,,,0.00,Wunderground v.1.15,2013-02-03 04:04:00,
2013-02-02 23:05:00,56.2,48.7,30.19,NNW,342,1.0,3.0,76,0.00,,,0.00,Wunderground v.1.15,2013-02-03 04:05:00,
2013-02-02 23:06:00,56.1,48.6,30.19,North,349,1.0,3.0,76,0.00,,,0.00,Wunderground v.1.15,2013-02-03 04:06:00,
2013-02-02 23:09:00,56.1,48.6,30.19,NNE,19,2.0,4.0,76,0.00,,,0.00,Wunderground v.1.15,2013-02-03 04:09:00,
2013-02-02 23:10:00,56.1,48.6,30.19,North,5,3.0,3.0,76,0.00,,,0.00,Wunderground v.1.15,2013-02-03 04:10:00,
2013-02-02 23:11:00,56.1,48.6,30.19,North,351,2.0,3.0,76,0.00,,,0.00,Wunderground v.1.15,2013-02-03 04:11:00,
2013-02-02 23:14:00,56.0,48.5,30.19,North,4,1.0,3.0,76,0.00,,,0.00,Wunderground v.1.15,2013-02-03 04:14:00,
2013-02-02 23:15:00,55.9,48.4,30.19,NNW,335,3.0,4.0,76,0.00,,,0.00,Wunderground v.1.15,2013-02-03 04:15:00,
2013-02-02 23:16:00,56.0,48.5,30.19,North,357,2.0,4.0,76,0.00,,,0.00,Wunderground v.1.15,2013-02-03 04:16:00,
2013-02-02 23:19:00,55.9,48.4,30.19,NNW,347,3.0,4.0,76,0.00,,,0.00,Wunderground v.1.15,2013-02-03 04:19:00,
2013-02-02 23:20:00,55.8,48.3,30.18,North,9,1.0,4.0,76,0.00,,,0.00,Wunderground v.1.15,2013-02-03 04:20:00,
2013-02-02 23:21:00,55.8,48.3,30.19,North,360,2.0,4.0,76,0.00,,,0.00,Wunderground v.1.15,2013-02-03 04:21:00,
2013-02-02 23:24:00,55.7,48.2,30.19,North,357,2.0,4.0,76,0.00,,,0.00,Wunderground v.1.15,2013-02-03 04:24:00,
2013-02-02 23:25:00,55.6,48.2,30.19,North,356,2.0,4.0,76,0.00,,,0.00,Wunderground v.1.15,2013-02-03 04:25:00,
2013-02-02 23:26:00,55.6,48.2,30.19,North,10,2.0,4.0,76,0.00,,,0.00,Wunderground v.1.15,2013-02-03 04:26:00,
2013-02-02 23:30:00,55.4,48.0,30.19,NNW,333,1.0,3.0,76,0.00,,,0.00,Wunderground v.1.15,2013-02-03 04:30:00,
2013-02-02 23:31:00,55.4,48.0,30.19,NNE,23,1.0,3.0,76,0.00,,,0.00,Wunderground v.1.15,2013-02-03 04:31:00,
2013-02-02 23:35:00,55.2,48.1,30.19,North,11,4.0,5.0,77,0.00,,,0.00,Wunderground v.1.15,2013-02-03 04:35:00,
2013-02-02 23:36:00,55.2,48.1,30.19,NNE,18,2.0,5.0,77,0.00,,,0.00,Wunderground v.1.15,2013-02-03 04:36:00,
2013-02-02 23:37:00,55.2,48.1,30.19,North,8,3.0,5.0,77,0.00,,,0.00,Wunderground v.1.15,2013-02-03 04:37:00,
2013-02-02 23:40:00,55.0,47.9,30.19,NNE,15,3.0,5.0,77,0.00,,,0.00,Wunderground v.1.15,2013-02-03 04:40:00,
2013-02-02 23:41:00,55.0,47.9,30.19,NNE,26,2.0,5.0,77,0.00,,,0.00,Wunderground v.1.15,2013-02-03 04:41:00,
2013-02-02 23:42:00,55.0,47.9,30.19,NNW,344,3.0,5.0,77,0.00,,,0.00,Wunderground v.1.15,2013-02-03 04:42:00,
2013-02-02 23:46:00,55.0,47.9,30.18,North,11,3.0,5.0,77,0.00,,,0.00,Wunderground v.1.15,2013-02-03 04:46:00,
2013-02-02 23:47:00,55.0,47.9,30.19,North,359,1.0,5.0,77,0.00,,,0.00,Wunderground v.1.15,2013-02-03 04:47:00,
2013-02-02 23:51:00,54.9,47.8,30.19,North,360,2.0,3.0,77,0.00,,,0.00,Wunderground v.1.15,2013-02-03 04:51:00,
2013-02-02 23:52:00,54.9,47.8,30.18,North,6,1.0,3.0,77,0.00,,,0.00,Wunderground v.1.15,2013-02-03 04:52:00,
2013-02-02 23:56:00,54.7,47.6,30.19,NW,315,0.0,3.0,77,0.00,,,0.00,Wunderground v.1.15,2013-02-03 04:56:00,
2013-02-02 23:57:00,54.7,48.0,30.19,NNW,345,0.0,3.0,78,0.00,,,0.00,Wunderground v.1.15,2013-02-03 04:57:00,